Time,TemperatureF,DewpointF,PressureIn,WindDirection,WindDirectionDegrees,WindSpeedMPH,WindSpeedGustMPH,Humidity,HourlyPrecipIn,Conditions,Clouds,dailyrainin,SoftwareType,DateUTC
2013-07-26 00:01:00,63.4,59.8,29.97,NE,44,1.0,4.0,88,0.00,,,0.00,Wunderground v.1.15,2013-07-26 04:01:00,
2013-07-26 00:02:00,63.4,59.8,29.97,NE,43,1.0,4.0,88,0.00,,,0.00,Wunderground v.1.15,2013-07-26 04:02:00,
2013-07-26 00:04:00,63.3,59.7,29.97,NNE,33,1.0,4.0,88,0.00,,,0.00,Wunderground v.1.15,2013-07-26 04:04:00,
2013-07-26 00:05:00,63.3,59.7,29.97,NNE,33,1.0,4.0,88,0.00,,,0.00,Wunderground v.1.15,2013-07-26 04:05:00,
2013-07-26 00:06:00,63.3,59.7,29.97,NNE,33,1.0,4.0,88,0.00,,,0.00,Wunderground v.1.15,2013-07-26 04:06:00,
2013-07-26 00:07:00,63.2,59.6,29.97,NNE,33,1.0,4.0,88,0.00,,,0.00,Wunderground v.1.15,2013-07-26 04:07:00,
2013-07-26 00:10:00,63.2,59.6,29.97,NNE,33,1.0,1.0,88,0.00,,,0.00,Wunderground v.1.15,2013-07-26 04:10:00,
2013-07-26 00:11:00,63.3,59.7,29.96,NNE,33,1.0,3.0,88,0.00,,,0.00,Wunderground v.1.15,2013-07-26 04:11:00,
2013-07-26 00:14:00,63.3,59.7,29.96,NNE,33,1.0,4.0,88,0.00,,,0.00,Wunderground v.1.15,2013-07-26 04:14:00,
2013-07-26 00:15:00,63.3,59.7,29.96,NNE,33,1.0,4.0,88,0.00,,,0.00,Wunderground v.1.15,2013-07-26 04:15:00,
2013-07-26 00:16:00,63.3,59.4,29.96,NNE,33,1.0,4.0,87,0.00,,,0.00,Wunderground v.1.15,2013-07-26 04:16:00,
2013-07-26 00:19:00,63.3,59.4,29.96,NNE,33,1.0,4.0,87,0.00,,,0.00,Wunderground v.1.15,2013-07-26 04:19:00,
2013-07-26 00:20:00,63.3,59.4,29.96,NNE,33,1.0,1.0,87,0.00,,,0.00,Wunderground v.1.15,2013-07-26 04:20:00,
2013-07-26 00:21:00,63.3,59.4,29.96,NNE,33,1.0,4.0,87,0.00,,,0.00,Wunderground v.1.15,2013-07-26 04:21:00,
2013-07-26 00:24:00,63.3,59.4,29.96,NNE,33,1.0,4.0,87,0.00,,,0.00,Wunderground v.1.15,2013-07-26 04:24:00,
2013-07-26 00:26:00,63.3,59.4,29.96,NNE,33,1.0,4.0,87,0.00,,,0.00,Wunderground v.1.15,2013-07-26 04:26:00,
2013-07-26 00:28:00,63.3,59.4,29.96,NNE,33,0.0,4.0,87,0.00,,,0.00,Wunderground v.1.15,2013-07-26 04:28:00,
2013-07-26 00:30:00,63.3,59.4,29.96,NNE,33,0.0,4.0,87,0.00,,,0.00,Wunderground v.1.15,2013-07-26 04:30:00,
2013-07-26 00:31:00,63.3,59.4,29.96,NNE,33,0.0,4.0,87,0.00,,,0.00,Wunderground v.1.15,2013-07-26 04:31:00,
2013-07-26 00:32:00,63.3,59.4,29.96,NNE,33,0.0,4.0,87,0.00,,,0.00,Wunderground v.1.15,2013-07-26 04:32:00,
2013-07-26 00:35:00,63.3,59.4,29.96,NNE,33,0.0,4.0,87,0.00,,,0.00,Wunderground v.1.15,2013-07-26 04:35:00,
2013-07-26 00:37:00,63.3,59.4,29.97,NNE,32,0.0,4.0,87,0.00,,,0.00,Wunderground v.1.15,2013-07-26 04:37:00,
2013-07-26 00:40:00,63.3,59.4,29.97,NNE,32,1.0,1.0,87,0.00,,,0.00,Wunderground v.1.15,2013-07-26 04:40:00,
2013-07-26 00:41:00,63.3,59.4,29.97,NNE,32,0.0,4.0,87,0.00,,,0.00,Wunderground v.1.15,2013-07-26 04:41:00,
2013-07-26 00:42:00,63.3,59.4,29.97,NNE,32,1.0,4.0,87,0.00,,,0.00,Wunderground v.1.15,2013-07-26 04:42:00,
2013-07-26 00:45:00,63.4,59.5,29.97,NNE,32,1.0,4.0,87,0.00,,,0.00,Wunderground v.1.15,2013-07-26 04:45:00,
2013-07-26 00:48:00,63.4,59.1,29.96,NNE,32,0.0,4.0,86,0.00,,,0.00,Wunderground v.1.15,2013-07-26 04:48:00,
2013-07-26 00:49:00,63.4,59.1,29.96,NNE,32,0.0,4.0,86,0.00,,,0.00,Wunderground v.1.15,2013-07-26 04:49:00,
2013-07-26 00:50:00,63.4,59.1,29.96,NNE,32,0.0,4.0,86,0.00,,,0.00,Wunderground v.1.15,2013-07-26 04:50:00,
2013-07-26 00:54:00,63.4,59.1,29.96,NNE,32,0.0,4.0,86,0.00,,,0.00,Wunderground v.1.15,2013-07-26 04:54:00,
2013-07-26 00:55:00,63.4,59.1,29.96,NNE,32,0.0,4.0,86,0.00,,,0.00,Wunderground v.1.15,2013-07-26 04:55:00,
2013-07-26 00:56:00,63.4,59.1,29.96,NNE,32,0.0,4.0,86,0.00,,,0.00,Wunderground v.1.15,2013-07-26 04:56:00,
2013-07-26 00:58:00,63.4,59.1,29.96,NNE,32,0.0,4.0,86,0.00,,,0.00,Wunderground v.1.15,2013-07-26 04:58:00,
2013-07-26 01:02:00,63.4,59.1,29.95,NNE,32,0.0,5.0,86,0.00,,,0.00,Wunderground v.1.15,2013-07-26 05:02:00,
2013-07-26 01:03:00,63.4,59.1,29.95,NNE,32,0.0,5.0,86,0.00,,,0.00,Wunderground v.1.15,2013-07-26 05:03:00,
2013-07-26 01:04:00,63.4,59.1,29.95,NNE,32,0.0,5.0,86,0.00,,,0.00,Wunderground v.1.15,2013-07-26 05:04:00,
2013-07-26 01:05:00,63.4,59.1,29.95,NNE,32,0.0,5.0,86,0.00,,,0.00,Wunderground v.1.15,2013-07-26 05:05:00,
2013-07-26 01:07:00,63.4,59.1,29.95,NNE,32,0.0,5.0,86,0.00,,,0.00,Wunderground v.1.15,2013-07-26 05:07:00,
2013-07-26 01:11:00,63.4,59.1,29.95,NNE,32,0.0,5.0,86,0.00,,,0.00,Wunderground v.1.15,2013-07-26 05:11:00,
2013-07-26 01:12:00,63.4,59.1,29.95,NNE,32,0.0,5.0,86,0.00,,,0.00,Wunderground v.1.15,2013-07-26 05:12:00,
2013-07-26 01:16:00,63.4,59.1,29.95,NNE,32,0.0,5.0,86,0.00,,,0.00,Wunderground v.1.15,2013-07-26 05:16:00,
2013-07-26 01:19:00,63.3,59.0,29.95,NNE,32,0.0,5.0,86,0.00,,,0.00,Wunderground v.1.15,2013-07-26 05:19:00,
2013-07-26 01:23:00,63.3,59.0,29.95,NNE,32,0.0,5.0,86,0.00,,,0.00,Wunderground v.1.15,2013-07-26 05:23:00,
2013-07-26 01:24:00,63.3,59.0,29.95,NNE,32,0.0,5.0,86,0.00,,,0.00,Wunderground v.1.15,2013-07-26 05:24:00,
2013-07-26 01:26:00,63.3,59.0,29.95,NNE,32,0.0,5.0,86,0.00,,,0.00,Wunderground v.1.15,2013-07-26 05:26:00,
2013-07-26 01:29:00,63.2,58.9,29.96,NNE,32,0.0,5.0,86,0.00,,,0.00,Wunderground v.1.15,2013-07-26 05:29:00,
2013-07-26 01:32:00,63.3,59.4,29.96,NNE,32,0.0,5.0,87,0.00,,,0.00,Wunderground v.1.15,2013-07-26 05:32:00,
2013-07-26 01:33:00,63.2,59.3,29.96,NNE,32,0.0,5.0,87,0.00,,,0.00,Wunderground v.1.15,2013-07-26 05:33:00,
2013-07-26 01:34:00,63.2,59.3,29.96,NNE,32,0.0,5.0,87,0.00,,,0.00,Wunderground v.1.15,2013-07-26 05:34:00,
2013-07-26 01:37:00,63.2,59.3,29.96,NNE,32,0.0,5.0,87,0.00,,,0.00,Wunderground v.1.15,2013-07-26 05:37:00,
2013-07-26 01:41:00,63.3,59.4,29.96,NNE,32,0.0,5.0,87,0.00,,,0.00,Wunderground v.1.15,2013-07-26 05:41:00,
2013-07-26 01:42:00,63.2,59.3,29.96,NNE,32,0.0,5.0,87,0.00,,,0.00,Wunderground v.1.15,2013-07-26 05:42:00,
2013-07-26 01:44:00,63.2,59.3,29.96,NNE,32,0.0,5.0,87,0.00,,,0.00,Wunderground v.1.15,2013-07-26 05:44:00,
2013-07-26 01:47:00,63.2,59.3,29.96,NNE,32,0.0,5.0,87,0.00,,,0.00,Wunderground v.1.15,2013-07-26 05:47:00,
2013-07-26 01:48:00,63.2,59.3,29.96,NNE,32,0.0,5.0,87,0.00,,,0.00,Wunderground v.1.15,2013-07-26 05:48:00,
2013-07-26 01:50:00,63.2,59.6,29.96,NNE,32,0.0,5.0,88,0.00,,,0.00,Wunderground v.1.15,2013-07-26 05:50:00,
2013-07-26 01:52:00,63.2,59.6,29.96,NNE,32,0.0,5.0,88,0.00,,,0.00,Wunderground v.1.15,2013-07-26 05:52:00,
2013-07-26 01:53:00,63.2,59.6,29.96,NNE,32,0.0,5.0,88,0.00,,,0.00,Wunderground v.1.15,2013-07-26 05:53:00,
2013-07-26 01:55:00,63.2,59.6,29.96,NNE,32,0.0,5.0,88,0.00,,,0.00,Wunderground v.1.15,2013-07-26 05:55:00,
2013-07-26 01:58:00,63.2,59.6,29.95,NNE,32,0.0,5.0,88,0.00,,,0.00,Wunderground v.1.15,2013-07-26 05:58:00,
2013-07-26 02:02:00,63.3,59.7,29.95,NNE,32,0.0,1.0,88,0.00,,,0.00,Wunderground v.1.15,2013-07-26 06:02:00,
2013-07-26 02:03:00,63.3,59.7,29.96,NNE,32,0.0,1.0,88,0.00,,,0.00,Wunderground v.1.15,2013-07-26 06:03:00,
2013-07-26 02:04:00,63.3,59.7,29.95,NNE,32,0.0,1.0,88,0.00,,,0.00,Wunderground v.1.15,2013-07-26 06:04:00,
2013-07-26 02:07:00,63.3,60.0,29.96,NNE,32,0.0,1.0,89,0.00,,,0.00,Wunderground v.1.15,2013-07-26 06:07:00,
2013-07-26 02:08:00,63.3,60.0,29.96,NNE,32,0.0,1.0,89,0.00,,,0.00,Wunderground v.1.15,2013-07-26 06:08:00,
2013-07-26 02:09:00,63.3,60.0,29.95,NNE,32,0.0,1.0,89,0.00,,,0.00,Wunderground v.1.15,2013-07-26 06:09:00,
2013-07-26 02:13:00,63.4,60.1,29.95,NNE,32,0.0,1.0,89,0.00,,,0.00,Wunderground v.1.15,2013-07-26 06:13:00,
2013-07-26 02:14:00,63.4,60.1,29.95,NNE,32,0.0,1.0,89,0.00,,,0.00,Wunderground v.1.15,2013-07-26 06:14:00,
2013-07-26 02:15:00,63.4,60.1,29.95,NNE,32,0.0,1.0,89,0.00,,,0.00,Wunderground v.1.15,2013-07-26 06:15:00,
2013-07-26 02:16:00,63.4,60.1,29.95,NNE,32,0.0,1.0,89,0.00,,,0.00,Wunderground v.1.15,2013-07-26 06:16:00,
2013-07-26 02:21:00,63.3,60.0,29.95,NNE,32,0.0,1.0,89,0.00,,,0.00,Wunderground v.1.15,2013-07-26 06:21:00,
2013-07-26 02:23:00,63.3,60.0,29.95,NNE,32,0.0,1.0,89,0.00,,,0.00,Wunderground v.1.15,2013-07-26 06:23:00,
2013-07-26 02:24:00,63.3,60.0,29.95,NNE,32,0.0,1.0,89,0.00,,,0.00,Wunderground v.1.15,2013-07-26 06:24:00,
2013-07-26 02:28:00,63.3,60.0,29.95,NNE,32,0.0,1.0,89,0.00,,,0.00,Wunderground v.1.15,2013-07-26 06:28:00,
2013-07-26 02:29:00,63.2,59.9,29.95,NNE,32,0.0,1.0,89,0.00,,,0.00,Wunderground v.1.15,2013-07-26 06:29:00,
2013-07-26 02:32:00,63.2,59.9,29.95,NNE,32,0.0,1.0,89,0.00,,,0.00,Wunderground v.1.15,2013-07-26 06:32:00,
2013-07-26 02:34:00,63.2,59.9,29.95,NNE,32,0.0,1.0,89,0.00,,,0.00,Wunderground v.1.15,2013-07-26 06:34:00,
2013-07-26 02:36:00,63.2,59.9,29.95,NNE,32,0.0,1.0,89,0.00,,,0.00,Wunderground v.1.15,2013-07-26 06:36:00,
2013-07-26 02:37:00,63.2,59.9,29.95,NNE,32,0.0,1.0,89,0.00,,,0.00,Wunderground v.1.15,2013-07-26 06:37:00,
2013-07-26 02:38:00,63.1,59.8,29.95,NNE,32,0.0,1.0,89,0.00,,,0.00,Wunderground v.1.15,2013-07-26 06:38:00,
2013-07-26 02:41:00,63.1,59.8,29.95,NNE,32,0.0,1.0,89,0.00,,,0.00,Wunderground v.1.15,2013-07-26 06:41:00,
2013-07-26 02:43:00,63.1,59.8,29.95,NNE,32,0.0,1.0,89,0.00,,,0.00,Wunderground v.1.15,2013-07-26 06:43:00,
2013-07-26 02:46:00,63.0,59.7,29.95,NNE,32,0.0,1.0,89,0.00,,,0.00,Wunderground v.1.15,2013-07-26 06:46:00,
2013-07-26 02:48:00,63.1,59.8,29.95,NNE,32,0.0,1.0,89,0.00,,,0.00,Wunderground v.1.15,2013-07-26 06:48:00,
2013-07-26 02:50:00,63.0,59.7,29.95,NNE,32,0.0,1.0,89,0.00,,,0.00,Wunderground v.1.15,2013-07-26 06:50:00,
2013-07-26 02:54:00,63.0,59.7,29.95,NNE,32,0.0,1.0,89,0.00,,,0.00,Wunderground v.1.15,2013-07-26 06:54:00,
2013-07-26 02:55:00,63.0,59.7,29.95,NNE,32,0.0,1.0,89,0.00,,,0.00,Wunderground v.1.15,2013-07-26 06:55:00,
2013-07-26 02:57:00,62.9,59.9,29.95,NNE,32,0.0,1.0,90,0.00,,,0.00,Wunderground v.1.15,2013-07-26 06:57:00,
2013-07-26 02:59:00,62.9,59.9,29.95,NNE,32,0.0,1.0,90,0.00,,,0.00,Wunderground v.1.15,2013-07-26 06:59:00,
2013-07-26 03:00:00,62.9,59.9,29.95,NNE,32,0.0,1.0,90,0.00,,,0.00,Wunderground v.1.15,2013-07-26 07:00:00,
2013-07-26 03:02:00,62.9,59.9,29.95,NNE,32,0.0,1.0,90,0.00,,,0.00,Wunderground v.1.15,2013-07-26 07:02:00,
2013-07-26 03:04:00,62.9,59.9,29.95,NNE,32,0.0,1.0,90,0.00,,,0.00,Wunderground v.1.15,2013-07-26 07:04:00,
2013-07-26 03:06:00,62.9,59.9,29.94,NNE,32,0.0,1.0,90,0.00,,,0.00,Wunderground v.1.15,2013-07-26 07:06:00,
2013-07-26 03:08:00,62.9,59.9,29.94,NNE,32,0.0,1.0,90,0.00,,,0.00,Wunderground v.1.15,2013-07-26 07:08:00,
2013-07-26 03:09:00,62.9,59.9,29.94,NNE,32,0.0,1.0,90,0.00,,,0.00,Wunderground v.1.15,2013-07-26 07:09:00,
2013-07-26 03:11:00,62.9,59.9,29.94,NNE,32,0.0,1.0,90,0.00,,,0.00,Wunderground v.1.15,2013-07-26 07:11:00,
2013-07-26 03:12:00,62.9,59.9,29.94,NNE,32,0.0,1.0,90,0.00,,,0.00,Wunderground v.1.15,2013-07-26 07:12:00,
2013-07-26 03:14:00,62.9,59.9,29.94,NNE,32,0.0,1.0,90,0.00,,,0.00,Wunderground v.1.15,2013-07-26 07:14:00,
2013-07-26 03:16:00,62.8,60.1,29.94,NNE,32,0.0,1.0,91,0.00,,,0.00,Wunderground v.1.15,2013-07-26 07:16:00,
2013-07-26 03:17:00,62.8,60.1,29.94,NNE,32,0.0,1.0,91,0.00,,,0.00,Wunderground v.1.15,2013-07-26 07:17:00,
2013-07-26 03:19:00,62.8,60.1,29.94,NNE,32,0.0,1.0,91,0.00,,,0.00,Wunderground v.1.15,2013-07-26 07:19:00,
2013-07-26 03:20:00,62.8,60.1,29.94,NNE,32,0.0,1.0,91,0.00,,,0.00,Wunderground v.1.15,2013-07-26 07:20:00,
2013-07-26 03:22:00,62.8,60.1,29.94,NNE,32,0.0,1.0,91,0.00,,,0.00,Wunderground v.1.15,2013-07-26 07:22:00,
2013-07-26 03:23:00,62.7,60.0,29.94,NNE,32,0.0,1.0,91,0.00,,,0.00,Wunderground v.1.15,2013-07-26 07:23:00,
2013-07-26 03:28:00,62.7,60.0,29.94,NNE,32,0.0,1.0,91,0.00,,,0.00,Wunderground v.1.15,2013-07-26 07:28:00,
2013-07-26 03:30:00,62.7,60.0,29.93,NNE,32,0.0,1.0,91,0.00,,,0.00,Wunderground v.1.15,2013-07-26 07:30:00,
2013-07-26 03:31:00,62.7,60.0,29.93,NNE,32,0.0,1.0,91,0.00,,,0.00,Wunderground v.1.15,2013-07-26 07:31:00,
2013-07-26 03:32:00,62.6,59.9,29.93,NNE,32,0.0,1.0,91,0.00,,,0.00,Wunderground v.1.15,2013-07-26 07:32:00,
2013-07-26 03:37:00,62.6,59.9,29.93,NNE,32,0.0,1.0,91,0.00,,,0.00,Wunderground v.1.15,2013-07-26 07:37:00,
2013-07-26 03:38:00,62.6,59.9,29.93,NNE,32,0.0,1.0,91,0.00,,,0.00,Wunderground v.1.15,2013-07-26 07:38:00,
2013-07-26 03:39:00,62.6,59.9,29.93,NNE,32,0.0,1.0,91,0.00,,,0.00,Wunderground v.1.15,2013-07-26 07:39:00,
2013-07-26 03:40:00,62.6,59.9,29.93,NNE,32,0.0,1.0,91,0.00,,,0.00,Wunderground v.1.15,2013-07-26 07:40:00,
2013-07-26 03:45:00,62.6,60.2,29.93,NNE,32,0.0,1.0,92,0.00,,,0.00,Wunderground v.1.15,2013-07-26 07:45:00,
2013-07-26 03:46:00,62.6,60.2,29.93,NNE,32,0.0,1.0,92,0.00,,,0.00,Wunderground v.1.15,2013-07-26 07:46:00,
2013-07-26 03:47:00,62.6,60.2,29.93,NNE,32,0.0,1.0,92,0.00,,,0.00,Wunderground v.1.15,2013-07-26 07:47:00,
2013-07-26 03:51:00,62.6,60.2,29.93,NNE,32,0.0,1.0,92,0.00,,,0.00,Wunderground v.1.15,2013-07-26 07:51:00,
2013-07-26 03:52:00,62.6,60.2,29.93,NNE,32,0.0,1.0,92,0.00,,,0.00,Wunderground v.1.15,2013-07-26 07:52:00,
2013-07-26 03:53:00,62.5,60.1,29.93,NNE,32,0.0,1.0,92,0.00,,,0.00,Wunderground v.1.15,2013-07-26 07:53:00,
2013-07-26 03:55:00,62.5,60.1,29.93,NNE,32,0.0,1.0,92,0.00,,,0.00,Wunderground v.1.15,2013-07-26 07:55:00,
2013-07-26 03:56:00,62.5,60.1,29.93,NNE,32,0.0,1.0,92,0.00,,,0.00,Wunderground v.1.15,2013-07-26 07:56:00,
2013-07-26 03:58:00,62.5,60.1,29.93,NNE,32,0.0,1.0,92,0.00,,,0.00,Wunderground v.1.15,2013-07-26 07:58:00,
2013-07-26 04:02:00,62.5,60.1,29.93,NNE,32,0.0,0.0,92,0.00,,,0.00,Wunderground v.1.15,2013-07-26 08:02:00,
2013-07-26 04:03:00,62.5,60.1,29.93,NNE,32,0.0,0.0,92,0.00,,,0.00,Wunderground v.1.15,2013-07-26 08:03:00,
2013-07-26 04:04:00,62.4,60.0,29.93,NNE,32,0.0,0.0,92,0.00,,,0.00,Wunderground v.1.15,2013-07-26 08:04:00,
2013-07-26 04:07:00,62.4,60.0,29.93,NNE,32,0.0,0.0,92,0.00,,,0.00,Wunderground v.1.15,2013-07-26 08:07:00,
2013-07-26 04:08:00,62.4,60.0,29.93,NNE,32,0.0,0.0,92,0.00,,,0.00,Wunderground v.1.15,2013-07-26 08:08:00,
2013-07-26 04:09:00,62.4,60.0,29.93,NNE,32,0.0,0.0,92,0.00,,,0.00,Wunderground v.1.15,2013-07-26 08:09:00,
2013-07-26 04:12:00,62.4,60.0,29.93,NNE,32,0.0,0.0,92,0.00,,,0.00,Wunderground v.1.15,2013-07-26 08:12:00,
2013-07-26 04:14:00,62.4,60.0,29.93,NNE,32,0.0,0.0,92,0.00,,,0.00,Wunderground v.1.15,2013-07-26 08:14:00,
2013-07-26 04:17:00,62.3,59.9,29.93,NNE,32,0.0,1.0,92,0.00,,,0.00,Wunderground v.1.15,2013-07-26 08:17:00,
2013-07-26 04:18:00,62.3,59.9,29.93,NNE,32,0.0,1.0,92,0.00,,,0.00,Wunderground v.1.15,2013-07-26 08:18:00,
2013-07-26 04:19:00,62.3,59.9,29.93,NNE,32,0.0,1.0,92,0.00,,,0.00,Wunderground v.1.15,2013-07-26 08:19:00,
2013-07-26 04:20:00,62.3,59.9,29.93,NNE,32,0.0,0.0,92,0.00,,,0.00,Wunderground v.1.15,2013-07-26 08:20:00,
2013-07-26 04:22:00,62.3,59.9,29.93,NNE,32,0.0,0.0,92,0.00,,,0.00,Wunderground v.1.15,2013-07-26 08:22:00,
2013-07-26 04:23:00,62.3,59.9,29.93,NNE,32,0.0,0.0,92,0.00,,,0.00,Wunderground v.1.15,2013-07-26 08:23:00,
2013-07-26 04:26:00,62.3,59.9,29.93,NNE,32,0.0,0.0,92,0.00,,,0.00,Wunderground v.1.15,2013-07-26 08:26:00,
2013-07-26 04:27:00,62.3,59.9,29.93,NNE,32,0.0,0.0,92,0.00,,,0.00,Wunderground v.1.15,2013-07-26 08:27:00,
2013-07-26 04:28:00,62.3,59.9,29.93,NNE,32,0.0,0.0,92,0.00,,,0.00,Wunderground v.1.15,2013-07-26 08:28:00,
2013-07-26 04:29:00,62.3,59.9,29.93,NNE,32,0.0,0.0,92,0.00,,,0.00,Wunderground v.1.15,2013-07-26 08:29:00,
2013-07-26 04:30:00,62.4,60.0,29.93,NNE,32,0.0,0.0,92,0.00,,,0.00,Wunderground v.1.15,2013-07-26 08:30:00,
2013-07-26 04:32:00,62.4,60.0,29.93,NNE,32,0.0,0.0,92,0.00,,,0.00,Wunderground v.1.15,2013-07-26 08:32:00,
2013-07-26 04:34:00,62.4,60.0,29.93,NNE,32,0.0,0.0,92,0.00,,,0.00,Wunderground v.1.15,2013-07-26 08:34:00,
2013-07-26 04:36:00,62.4,60.0,29.93,NNE,32,0.0,0.0,92,0.00,,,0.00,Wunderground v.1.15,2013-07-26 08:36:00,
2013-07-26 04:39:00,62.3,59.9,29.93,NNE,32,0.0,0.0,92,0.00,,,0.00,Wunderground v.1.15,2013-07-26 08:39:00,
2013-07-26 04:40:00,62.3,59.9,29.93,NNE,32,0.0,0.0,92,0.00,,,0.00,Wunderground v.1.15,2013-07-26 08:40:00,
2013-07-26 04:41:00,62.3,59.9,29.93,NNE,32,0.0,0.0,92,0.00,,,0.00,Wunderground v.1.15,2013-07-26 08:41:00,
2013-07-26 04:44:00,62.3,59.9,29.93,NNE,32,0.0,0.0,92,0.00,,,0.00,Wunderground v.1.15,2013-07-26 08:44:00,
2013-07-26 04:47:00,62.3,59.9,29.93,NNE,32,0.0,0.0,92,0.00,,,0.00,Wunderground v.1.15,2013-07-26 08:47:00,
2013-07-26 04:49:00,62.3,59.9,29.93,NNE,32,0.0,0.0,92,0.00,,,0.00,Wunderground v.1.15,2013-07-26 08:49:00,
2013-07-26 04:52:00,62.3,59.9,29.93,NNE,32,0.0,0.0,92,0.00,,,0.00,Wunderground v.1.15,2013-07-26 08:52:00,
2013-07-26 04:54:00,62.3,59.9,29.93,NNE,32,0.0,0.0,92,0.00,,,0.00,Wunderground v.1.15,2013-07-26 08:54:00,
2013-07-26 04:58:00,62.2,59.8,29.93,NNE,32,0.0,0.0,92,0.00,,,0.00,Wunderground v.1.15,2013-07-26 08:58:00,
2013-07-26 05:00:00,62.2,59.8,29.93,NNE,32,0.0,1.0,92,0.00,,,0.00,Wunderground v.1.15,2013-07-26 09:00:00,
2013-07-26 05:02:00,62.2,59.8,29.93,NNE,32,0.0,1.0,92,0.00,,,0.00,Wunderground v.1.15,2013-07-26 09:02:00,
2013-07-26 05:05:00,62.3,59.9,29.93,NNE,32,0.0,2.0,92,0.00,,,0.00,Wunderground v.1.15,2013-07-26 09:05:00,
2013-07-26 05:06:00,62.3,59.9,29.92,NNE,32,0.0,2.0,92,0.00,,,0.00,Wunderground v.1.15,2013-07-26 09:06:00,
2013-07-26 05:11:00,62.3,59.9,29.92,NNE,32,0.0,1.0,92,0.00,,,0.00,Wunderground v.1.15,2013-07-26 09:11:00,
2013-07-26 05:12:00,62.3,59.9,29.92,NNE,32,1.0,1.0,92,0.00,,,0.00,Wunderground v.1.15,2013-07-26 09:12:00,
2013-07-26 05:16:00,62.3,59.9,29.92,NNE,32,1.0,4.0,92,0.00,,,0.00,Wunderground v.1.15,2013-07-26 09:16:00,
2013-07-26 05:19:00,62.3,59.6,29.93,NNE,32,1.0,4.0,91,0.00,,,0.00,Wunderground v.1.15,2013-07-26 09:19:00,
2013-07-26 05:22:00,62.3,59.6,29.92,NNE,31,1.0,5.0,91,0.00,,,0.00,Wunderground v.1.15,2013-07-26 09:22:00,
2013-07-26 05:24:00,62.3,59.6,29.92,NNE,30,2.0,5.0,91,0.00,,,0.00,Wunderground v.1.15,2013-07-26 09:24:00,
2013-07-26 05:26:00,62.3,59.6,29.92,NNE,30,1.0,5.0,91,0.00,,,0.00,Wunderground v.1.15,2013-07-26 09:26:00,
2013-07-26 05:27:00,62.3,59.6,29.92,NNE,30,1.0,5.0,91,0.00,,,0.00,Wunderground v.1.15,2013-07-26 09:27:00,
2013-07-26 05:29:00,62.4,59.7,29.92,NNE,30,1.0,5.0,91,0.00,,,0.00,Wunderground v.1.15,2013-07-26 09:29:00,
2013-07-26 05:31:00,62.4,59.7,29.92,NNE,30,1.0,1.0,91,0.00,,,0.00,Wunderground v.1.15,2013-07-26 09:31:00,
2013-07-26 05:32:00,62.4,59.7,29.92,NNE,30,1.0,1.0,91,0.00,,,0.00,Wunderground v.1.15,2013-07-26 09:32:00,
2013-07-26 05:35:00,62.4,59.7,29.92,NNE,30,0.0,1.0,91,0.00,,,0.00,Wunderground v.1.15,2013-07-26 09:35:00,
2013-07-26 05:36:00,62.4,59.7,29.92,NNE,30,0.0,1.0,91,0.00,,,0.00,Wunderground v.1.15,2013-07-26 09:36:00,
2013-07-26 05:37:00,62.4,59.7,29.92,NNE,30,0.0,3.0,91,0.00,,,0.00,Wunderground v.1.15,2013-07-26 09:37:00,
2013-07-26 05:42:00,62.4,59.4,29.93,NNE,30,1.0,4.0,90,0.00,,,0.00,Wunderground v.1.15,2013-07-26 09:42:00,
2013-07-26 05:45:00,62.4,59.4,29.92,NNE,30,1.0,4.0,90,0.00,,,0.00,Wunderground v.1.15,2013-07-26 09:45:00,
2013-07-26 05:46:00,62.4,59.4,29.92,NNE,30,1.0,4.0,90,0.00,,,0.00,Wunderground v.1.15,2013-07-26 09:46:00,
2013-07-26 05:49:00,62.5,59.5,29.92,NNE,30,1.0,4.0,90,0.00,,,0.00,Wunderground v.1.15,2013-07-26 09:49:00,
2013-07-26 05:50:00,62.5,59.5,29.92,NNE,26,1.0,1.0,90,0.00,,,0.00,Wunderground v.1.15,2013-07-26 09:50:00,
2013-07-26 05:52:00,62.4,59.4,29.92,NNE,26,1.0,1.0,90,0.00,,,0.00,Wunderground v.1.15,2013-07-26 09:52:00,
2013-07-26 05:56:00,62.5,59.5,29.92,NNE,26,1.0,4.0,90,0.00,,,0.00,Wunderground v.1.15,2013-07-26 09:56:00,
2013-07-26 05:57:00,62.5,59.5,29.92,NNE,27,1.0,4.0,90,0.00,,,0.00,Wunderground v.1.15,2013-07-26 09:57:00,
2013-07-26 05:59:00,62.5,59.5,29.92,NNE,27,2.0,4.0,90,0.00,,,0.00,Wunderground v.1.15,2013-07-26 09:59:00,
2013-07-26 06:03:00,62.5,59.5,29.93,NNE,23,2.0,4.0,90,0.00,,,0.00,Wunderground v.1.15,2013-07-26 10:03:00,
2013-07-26 06:04:00,62.5,59.2,29.93,NNE,22,2.0,4.0,89,0.00,,,0.00,Wunderground v.1.15,2013-07-26 10:04:00,
2013-07-26 06:05:00,62.5,59.2,29.93,NNE,22,2.0,5.0,89,0.00,,,0.00,Wunderground v.1.15,2013-07-26 10:05:00,
2013-07-26 06:08:00,62.5,59.2,29.93,North,5,2.0,5.0,89,0.00,,,0.00,Wunderground v.1.15,2013-07-26 10:08:00,
2013-07-26 06:10:00,62.5,59.2,29.93,North,10,2.0,2.0,89,0.00,,,0.00,Wunderground v.1.15,2013-07-26 10:10:00,
2013-07-26 06:11:00,62.6,59.3,29.93,NNE,12,1.0,3.0,89,0.00,,,0.00,Wunderground v.1.15,2013-07-26 10:11:00,
2013-07-26 06:13:00,62.6,59.3,29.93,NNE,17,1.0,4.0,89,0.00,,,0.00,Wunderground v.1.15,2013-07-26 10:13:00,
2013-07-26 06:14:00,62.6,59.3,29.94,NNE,17,1.0,4.0,89,0.00,,,0.00,Wunderground v.1.15,2013-07-26 10:14:00,
2013-07-26 06:17:00,62.6,59.3,29.94,NNW,348,1.0,4.0,89,0.00,,,0.00,Wunderground v.1.15,2013-07-26 10:17:00,
2013-07-26 06:18:00,62.7,59.4,29.94,NNW,348,1.0,4.0,89,0.00,,,0.00,Wunderground v.1.15,2013-07-26 10:18:00,
2013-07-26 06:20:00,62.7,59.4,29.94,NNW,348,1.0,1.0,89,0.00,,,0.00,Wunderground v.1.15,2013-07-26 10:20:00,
2013-07-26 06:22:00,62.7,59.4,29.93,NNW,348,1.0,4.0,89,0.00,,,0.00,Wunderground v.1.15,2013-07-26 10:22:00,
2013-07-26 06:24:00,62.7,59.4,29.93,NNW,348,1.0,4.0,89,0.00,,,0.00,Wunderground v.1.15,2013-07-26 10:24:00,
2013-07-26 06:29:00,62.7,59.1,29.93,NNE,15,1.0,4.0,88,0.00,,,0.00,Wunderground v.1.15,2013-07-26 10:29:00,
2013-07-26 06:30:00,62.7,59.1,29.93,NNE,14,1.0,4.0,88,0.00,,,0.00,Wunderground v.1.15,2013-07-26 10:30:00,
2013-07-26 06:32:00,62.7,59.1,29.93,North,5,2.0,4.0,88,0.00,,,0.00,Wunderground v.1.15,2013-07-26 10:32:00,
2013-07-26 06:33:00,62.8,59.2,29.93,NNE,21,2.0,4.0,88,0.00,,,0.00,Wunderground v.1.15,2013-07-26 10:33:00,
2013-07-26 06:37:00,62.8,59.2,29.93,NNE,13,2.0,4.0,88,0.00,,,0.00,Wunderground v.1.15,2013-07-26 10:37:00,
2013-07-26 06:38:00,62.8,59.2,29.93,NNE,13,1.0,4.0,88,0.00,,,0.00,Wunderground v.1.15,2013-07-26 10:38:00,
2013-07-26 06:40:00,62.8,59.2,29.93,NNE,13,1.0,1.0,88,0.00,,,0.00,Wunderground v.1.15,2013-07-26 10:40:00,
2013-07-26 06:42:00,62.8,59.2,29.92,NNE,13,1.0,4.0,88,0.00,,,0.00,Wunderground v.1.15,2013-07-26 10:42:00,
2013-07-26 06:44:00,62.9,59.6,29.92,NNE,13,1.0,4.0,89,0.00,,,0.00,Wunderground v.1.15,2013-07-26 10:44:00,
2013-07-26 06:45:00,62.9,59.6,29.92,NNE,13,0.0,4.0,89,0.00,,,0.00,Wunderground v.1.15,2013-07-26 10:45:00,
2013-07-26 06:47:00,62.9,59.6,29.92,NNE,13,0.0,4.0,89,0.00,,,0.00,Wunderground v.1.15,2013-07-26 10:47:00,
2013-07-26 06:51:00,62.9,59.6,29.92,NNE,13,0.0,4.0,89,0.00,,,0.00,Wunderground v.1.15,2013-07-26 10:51:00,
2013-07-26 06:52:00,62.9,59.6,29.92,NNE,13,0.0,4.0,89,0.00,,,0.00,Wunderground v.1.15,2013-07-26 10:52:00,
2013-07-26 06:53:00,62.9,59.6,29.92,NNE,13,0.0,4.0,89,0.00,,,0.00,Wunderground v.1.15,2013-07-26 10:53:00,
2013-07-26 06:54:00,62.9,59.6,29.92,NNE,13,0.0,4.0,89,0.00,,,0.00,Wunderground v.1.15,2013-07-26 10:54:00,
2013-07-26 06:58:00,62.9,59.6,29.93,NNE,13,0.0,4.0,89,0.00,,,0.00,Wunderground v.1.15,2013-07-26 10:58:00,
2013-07-26 07:00:00,62.9,59.6,29.93,NNE,13,0.0,7.0,89,0.00,,,0.00,Wunderground v.1.15,2013-07-26 11:00:00,
2013-07-26 07:02:00,62.9,59.6,29.93,NNE,13,0.0,7.0,89,0.00,,,0.00,Wunderground v.1.15,2013-07-26 11:02:00,
2013-07-26 07:03:00,62.9,59.6,29.93,NNE,13,0.0,7.0,89,0.00,,,0.00,Wunderground v.1.15,2013-07-26 11:03:00,
2013-07-26 07:04:00,62.9,59.6,29.94,NNE,13,0.0,7.0,89,0.00,,,0.00,Wunderground v.1.15,2013-07-26 11:04:00,
2013-07-26 07:07:00,62.9,59.3,29.94,North,351,1.0,7.0,88,0.00,,,0.00,Wunderground v.1.15,2013-07-26 11:07:00,
2013-07-26 07:10:00,62.9,59.3,29.94,North,351,1.0,1.0,88,0.00,,,0.00,Wunderground v.1.15,2013-07-26 11:10:00,
2013-07-26 07:11:00,62.9,59.3,29.94,North,351,1.0,7.0,88,0.00,,,0.00,Wunderground v.1.15,2013-07-26 11:11:00,
2013-07-26 07:12:00,63.0,59.4,29.94,North,360,1.0,7.0,88,0.00,,,0.00,Wunderground v.1.15,2013-07-26 11:12:00,
2013-07-26 07:14:00,62.9,59.3,29.94,North,5,1.0,7.0,88,0.00,,,0.00,Wunderground v.1.15,2013-07-26 11:14:00,
2013-07-26 07:16:00,63.0,59.4,29.94,North,5,1.0,7.0,88,0.00,,,0.00,Wunderground v.1.15,2013-07-26 11:16:00,
2013-07-26 07:17:00,63.0,59.4,29.94,North,5,1.0,7.0,88,0.00,,,0.00,Wunderground v.1.15,2013-07-26 11:17:00,
2013-07-26 07:20:00,62.9,59.3,29.94,North,11,1.0,1.0,88,0.00,,,0.00,Wunderground v.1.15,2013-07-26 11:20:00,
2013-07-26 07:21:00,63.0,59.4,29.94,NNE,12,1.0,3.0,88,0.00,,,0.00,Wunderground v.1.15,2013-07-26 11:21:00,
2013-07-26 07:23:00,63.0,59.4,29.94,NNE,15,1.0,7.0,88,0.00,,,0.00,Wunderground v.1.15,2013-07-26 11:23:00,
2013-07-26 07:24:00,62.9,59.3,29.94,North,5,1.0,7.0,88,0.00,,,0.00,Wunderground v.1.15,2013-07-26 11:24:00,
2013-07-26 07:25:00,63.0,59.4,29.94,North,9,1.0,7.0,88,0.00,,,0.00,Wunderground v.1.15,2013-07-26 11:25:00,
2013-07-26 07:26:00,62.9,59.3,29.94,North,9,1.0,7.0,88,0.00,,,0.00,Wunderground v.1.15,2013-07-26 11:26:00,
2013-07-26 07:27:00,62.9,59.3,29.94,North,5,1.0,7.0,88,0.00,,,0.00,Wunderground v.1.15,2013-07-26 11:27:00,
2013-07-26 07:29:00,62.9,59.3,29.94,NNE,13,1.0,7.0,88,0.00,,,0.00,Wunderground v.1.15,2013-07-26 11:29:00,
2013-07-26 07:31:00,62.9,59.3,29.94,NNE,12,2.0,7.0,88,0.00,,,0.00,Wunderground v.1.15,2013-07-26 11:31:00,
2013-07-26 07:32:00,62.9,59.3,29.94,NNE,17,2.0,7.0,88,0.00,,,0.00,Wunderground v.1.15,2013-07-26 11:32:00,
2013-07-26 07:33:00,62.9,59.3,29.94,NNE,19,2.0,7.0,88,0.00,,,0.00,Wunderground v.1.15,2013-07-26 11:33:00,
2013-07-26 07:36:00,62.8,59.5,29.94,NNE,20,2.0,7.0,89,0.00,,,0.00,Wunderground v.1.15,2013-07-26 11:36:00,
2013-07-26 07:38:00,62.8,59.5,29.94,NNE,19,1.0,7.0,89,0.00,,,0.00,Wunderground v.1.15,2013-07-26 11:38:00,
2013-07-26 07:39:00,62.7,59.4,29.94,NNE,19,1.0,7.0,89,0.00,,,0.00,Wunderground v.1.15,2013-07-26 11:39:00,
2013-07-26 07:42:00,62.7,59.4,29.94,NNE,22,1.0,7.0,89,0.00,,,0.01,Wunderground v.1.15,2013-07-26 11:42:00,
2013-07-26 07:43:00,62.7,59.4,29.94,NNE,22,1.0,7.0,89,0.00,,,0.01,Wunderground v.1.15,2013-07-26 11:43:00,
2013-07-26 07:46:00,62.6,59.6,29.94,NNE,22,1.0,7.0,90,0.00,,,0.01,Wunderground v.1.15,2013-07-26 11:46:00,
2013-07-26 07:48:00,62.5,59.5,29.94,NNE,22,1.0,7.0,90,0.00,,,0.01,Wunderground v.1.15,2013-07-26 11:48:00,
2013-07-26 07:49:00,62.5,59.5,29.94,North,5,1.0,7.0,90,0.00,,,0.01,Wunderground v.1.15,2013-07-26 11:49:00,
2013-07-26 07:51:00,62.5,59.5,29.94,North,355,1.0,3.0,90,0.00,,,0.01,Wunderground v.1.15,2013-07-26 11:51:00,
2013-07-26 07:52:00,62.4,59.4,29.94,NNE,25,1.0,4.0,90,0.00,,,0.01,Wunderground v.1.15,2013-07-26 11:52:00,
2013-07-26 07:54:00,62.3,59.3,29.94,NNE,25,1.0,7.0,90,0.04,,,0.02,Wunderground v.1.15,2013-07-26 11:54:00,
2013-07-26 07:55:00,62.3,59.6,29.94,North,5,2.0,7.0,91,0.04,,,0.02,Wunderground v.1.15,2013-07-26 11:55:00,
2013-07-26 07:57:00,62.2,59.5,29.94,North,10,2.0,7.0,91,0.46,,,0.03,Wunderground v.1.15,2013-07-26 11:57:00,
2013-07-26 07:58:00,62.1,59.4,29.94,NNE,15,2.0,7.0,91,0.46,,,0.04,Wunderground v.1.15,2013-07-26 11:58:00,
2013-07-26 08:00:00,62.0,59.3,29.94,NNE,16,2.0,2.0,91,0.18,,,0.04,Wunderground v.1.15,2013-07-26 12:00:00,
2013-07-26 08:04:00,61.9,59.2,29.94,NNE,25,2.0,4.0,91,0.12,,,0.05,Wunderground v.1.15,2013-07-26 12:04:00,
2013-07-26 08:05:00,61.9,59.2,29.94,NNE,24,2.0,4.0,91,0.12,,,0.05,Wunderground v.1.15,2013-07-26 12:05:00,
2013-07-26 08:07:00,61.8,59.5,29.93,NNE,19,2.0,4.0,92,0.12,,,0.05,Wunderground v.1.15,2013-07-26 12:07:00,
2013-07-26 08:09:00,61.7,59.4,29.94,North,5,2.0,4.0,92,0.09,,,0.05,Wunderground v.1.15,2013-07-26 12:09:00,
2013-07-26 08:11:00,61.7,59.4,29.94,North,5,2.0,4.0,92,0.07,,,0.06,Wunderground v.1.15,2013-07-26 12:11:00,
2013-07-26 08:12:00,61.7,59.4,29.94,North,5,2.0,4.0,92,0.07,,,0.06,Wunderground v.1.15,2013-07-26 12:12:00,
2013-07-26 08:14:00,61.7,59.4,29.94,North,5,2.0,4.0,92,0.07,,,0.06,Wunderground v.1.15,2013-07-26 12:14:00,
2013-07-26 08:17:00,61.6,59.6,29.93,NNW,329,1.0,6.0,93,0.10,,,0.07,Wunderground v.1.15,2013-07-26 12:17:00,
2013-07-26 08:18:00,61.6,59.6,29.93,North,355,2.0,6.0,93,0.10,,,0.07,Wunderground v.1.15,2013-07-26 12:18:00,
2013-07-26 08:20:00,61.6,59.6,29.93,NNE,17,1.0,4.0,93,0.10,,,0.07,Wunderground v.1.15,2013-07-26 12:20:00,
2013-07-26 08:23:00,61.6,59.6,29.93,NNE,25,2.0,4.0,93,0.09,,,0.07,Wunderground v.1.15,2013-07-26 12:23:00,
2013-07-26 08:25:00,61.5,59.5,29.93,NNE,17,2.0,7.0,93,0.09,,,0.08,Wunderground v.1.15,2013-07-26 12:25:00,
2013-07-26 08:27:00,61.5,59.5,29.93,North,11,2.0,7.0,93,0.09,,,0.08,Wunderground v.1.15,2013-07-26 12:27:00,
2013-07-26 08:28:00,61.5,59.5,29.93,North,11,2.0,7.0,93,0.09,,,0.08,Wunderground v.1.15,2013-07-26 12:28:00,
2013-07-26 08:30:00,61.5,59.5,29.93,NNE,17,2.0,4.0,93,0.09,,,0.08,Wunderground v.1.15,2013-07-26 12:30:00,
2013-07-26 08:33:00,61.4,59.4,29.93,NNE,28,2.0,4.0,93,0.06,,,0.08,Wunderground v.1.15,2013-07-26 12:33:00,
2013-07-26 08:35:00,61.3,59.3,29.93,NNW,346,2.0,5.0,93,0.05,,,0.08,Wunderground v.1.15,2013-07-26 12:35:00,
2013-07-26 08:37:00,61.4,59.4,29.93,NE,38,2.0,5.0,93,0.04,,,0.08,Wunderground v.1.15,2013-07-26 12:37:00,
2013-07-26 08:38:00,61.4,59.4,29.93,NE,34,2.0,5.0,93,0.04,,,0.08,Wunderground v.1.15,2013-07-26 12:38:00,
2013-07-26 08:42:00,61.4,59.7,29.93,NE,34,1.0,4.0,94,0.00,,,0.08,Wunderground v.1.15,2013-07-26 12:42:00,
2013-07-26 08:44:00,61.4,59.7,29.93,NNE,24,1.0,4.0,94,0.00,,,0.08,Wunderground v.1.15,2013-07-26 12:44:00,
2013-07-26 08:45:00,61.3,59.6,29.93,NNE,24,1.0,4.0,94,0.00,,,0.08,Wunderground v.1.15,2013-07-26 12:45:00,
2013-07-26 08:47:00,61.4,59.7,29.93,NNE,24,1.0,4.0,94,0.00,,,0.08,Wunderground v.1.15,2013-07-26 12:47:00,
2013-07-26 08:48:00,61.4,59.7,29.93,North,9,1.0,5.0,94,0.00,,,0.08,Wunderground v.1.15,2013-07-26 12:48:00,
2013-07-26 08:51:00,61.3,59.6,29.92,NE,45,2.0,5.0,94,0.00,,,0.08,Wunderground v.1.15,2013-07-26 12:51:00,
2013-07-26 08:52:00,61.2,59.5,29.92,NNE,13,2.0,5.0,94,0.00,,,0.09,Wunderground v.1.15,2013-07-26 12:52:00,
2013-07-26 08:53:00,61.2,59.5,29.92,NNE,19,3.0,5.0,94,0.00,,,0.09,Wunderground v.1.15,2013-07-26 12:53:00,
2013-07-26 08:54:00,61.2,59.5,29.92,North,9,3.0,5.0,94,0.00,,,0.09,Wunderground v.1.15,2013-07-26 12:54:00,
2013-07-26 08:56:00,61.1,59.1,29.92,NNE,24,3.0,10.0,93,0.00,,,0.09,Wunderground v.1.15,2013-07-26 12:56:00,
2013-07-26 08:57:00,61.1,59.1,29.92,NNE,25,4.0,10.0,93,0.00,,,0.09,Wunderground v.1.15,2013-07-26 12:57:00,
2013-07-26 09:01:00,61.0,59.0,29.92,NNE,22,4.0,4.0,93,0.00,,,0.09,Wunderground v.1.15,2013-07-26 13:01:00,
2013-07-26 09:03:00,61.1,59.4,29.92,NNE,22,4.0,8.0,94,0.00,,,0.09,Wunderground v.1.15,2013-07-26 13:03:00,
2013-07-26 09:05:00,61.1,59.4,29.92,NE,38,4.0,8.0,94,0.00,,,0.09,Wunderground v.1.15,2013-07-26 13:05:00,
2013-07-26 09:08:00,61.1,59.4,29.92,NNE,17,4.0,8.0,94,0.00,,,0.09,Wunderground v.1.15,2013-07-26 13:08:00,
2013-07-26 09:10:00,61.2,59.5,29.92,NE,40,3.0,3.0,94,0.00,,,0.09,Wunderground v.1.15,2013-07-26 13:10:00,
2013-07-26 09:11:00,61.2,59.5,29.92,North,11,3.0,6.0,94,0.00,,,0.09,Wunderground v.1.15,2013-07-26 13:11:00,
2013-07-26 09:13:00,61.2,59.5,29.92,NE,37,3.0,8.0,94,0.00,,,0.09,Wunderground v.1.15,2013-07-26 13:13:00,
2013-07-26 09:15:00,61.3,59.6,29.92,NNE,19,3.0,8.0,94,0.00,,,0.09,Wunderground v.1.15,2013-07-26 13:15:00,
2013-07-26 09:18:00,61.4,59.7,29.92,NNE,18,3.0,8.0,94,0.00,,,0.09,Wunderground v.1.15,2013-07-26 13:18:00,
2013-07-26 09:20:00,61.4,59.7,29.91,NE,45,4.0,8.0,94,0.00,,,0.09,Wunderground v.1.15,2013-07-26 13:20:00,
2013-07-26 09:22:00,61.4,59.4,29.91,NE,50,4.0,8.0,93,0.00,,,0.09,Wunderground v.1.15,2013-07-26 13:22:00,
2013-07-26 09:23:00,61.5,59.5,29.91,NNE,30,4.0,8.0,93,0.00,,,0.09,Wunderground v.1.15,2013-07-26 13:23:00,
2013-07-26 09:26:00,61.5,59.5,29.92,NNE,24,5.0,8.0,93,0.00,,,0.09,Wunderground v.1.15,2013-07-26 13:26:00,
2013-07-26 09:28:00,61.6,59.6,29.92,NNE,14,4.0,8.0,93,0.00,,,0.09,Wunderground v.1.15,2013-07-26 13:28:00,
2013-07-26 09:30:00,61.6,59.6,29.92,NE,34,4.0,4.0,93,0.00,,,0.09,Wunderground v.1.15,2013-07-26 13:30:00,
2013-07-26 09:32:00,61.7,59.7,29.92,NNE,18,4.0,8.0,93,0.00,,,0.09,Wunderground v.1.15,2013-07-26 13:32:00,
2013-07-26 09:33:00,61.7,59.4,29.92,NE,42,4.0,8.0,92,0.00,,,0.09,Wunderground v.1.15,2013-07-26 13:33:00,
2013-07-26 09:36:00,61.8,59.5,29.92,North,350,4.0,8.0,92,0.00,,,0.09,Wunderground v.1.15,2013-07-26 13:36:00,
2013-07-26 09:39:00,61.9,59.5,29.92,NNW,335,4.0,8.0,92,0.00,,,0.09,Wunderground v.1.15,2013-07-26 13:39:00,
2013-07-26 09:42:00,62.0,59.6,29.92,NNW,346,3.0,8.0,92,0.00,,,0.09,Wunderground v.1.15,2013-07-26 13:42:00,
2013-07-26 09:44:00,62.1,59.7,29.92,North,5,3.0,8.0,92,0.00,,,0.09,Wunderground v.1.15,2013-07-26 13:44:00,
2013-07-26 09:45:00,62.1,59.7,29.92,North,5,3.0,8.0,92,0.00,,,0.09,Wunderground v.1.15,2013-07-26 13:45:00,
2013-07-26 09:47:00,62.1,59.4,29.92,North,355,3.0,8.0,91,0.00,,,0.09,Wunderground v.1.15,2013-07-26 13:47:00,
2013-07-26 09:50:00,62.2,59.5,29.92,NNW,347,2.0,8.0,91,0.00,,,0.09,Wunderground v.1.15,2013-07-26 13:50:00,
2013-07-26 09:52:00,62.2,59.5,29.92,NNW,346,2.0,8.0,91,0.00,,,0.09,Wunderground v.1.15,2013-07-26 13:52:00,
2013-07-26 09:54:00,62.2,59.5,29.92,NNE,18,3.0,8.0,91,0.00,,,0.09,Wunderground v.1.15,2013-07-26 13:54:00,
2013-07-26 09:57:00,62.3,59.6,29.92,NNW,340,2.0,8.0,91,0.00,,,0.10,Wunderground v.1.15,2013-07-26 13:57:00,
2013-07-26 10:00:00,62.3,59.6,29.92,NNW,330,3.0,8.0,91,0.00,,,0.10,Wunderground v.1.15,2013-07-26 14:00:00,
2013-07-26 10:02:00,62.3,59.6,29.92,NE,40,3.0,8.0,91,0.00,,,0.10,Wunderground v.1.15,2013-07-26 14:02:00,
2013-07-26 10:03:00,62.4,59.7,29.92,NNE,32,3.0,8.0,91,0.00,,,0.10,Wunderground v.1.15,2013-07-26 14:03:00,
2013-07-26 10:06:00,62.5,59.8,29.92,NNW,331,3.0,8.0,91,0.00,,,0.10,Wunderground v.1.15,2013-07-26 14:06:00,
2013-07-26 10:07:00,62.5,59.8,29.92,NW,326,3.0,8.0,91,0.00,,,0.10,Wunderground v.1.15,2013-07-26 14:07:00,
2013-07-26 10:08:00,62.5,59.8,29.92,North,350,3.0,8.0,91,0.00,,,0.10,Wunderground v.1.15,2013-07-26 14:08:00,
2013-07-26 10:10:00,62.5,59.5,29.92,North,360,2.0,2.0,90,0.00,,,0.10,Wunderground v.1.15,2013-07-26 14:10:00,
2013-07-26 10:13:00,62.5,59.5,29.92,North,5,2.0,8.0,90,0.00,,,0.10,Wunderground v.1.15,2013-07-26 14:13:00,
2013-07-26 10:15:00,62.5,59.5,29.92,North,5,2.0,8.0,90,0.00,,,0.10,Wunderground v.1.15,2013-07-26 14:15:00,
2013-07-26 10:16:00,62.5,59.5,29.92,NNE,28,1.0,8.0,90,0.00,,,0.10,Wunderground v.1.15,2013-07-26 14:16:00,
2013-07-26 10:18:00,62.5,59.5,29.92,NNE,28,1.0,8.0,90,0.00,,,0.10,Wunderground v.1.15,2013-07-26 14:18:00,
2013-07-26 10:19:00,62.5,59.5,29.92,NNE,28,1.0,8.0,90,0.00,,,0.10,Wunderground v.1.15,2013-07-26 14:19:00,
2013-07-26 10:23:00,62.6,59.9,29.92,NNE,28,1.0,8.0,91,0.00,,,0.10,Wunderground v.1.15,2013-07-26 14:23:00,
2013-07-26 10:24:00,62.6,59.9,29.92,NNE,28,1.0,8.0,91,0.00,,,0.10,Wunderground v.1.15,2013-07-26 14:24:00,
2013-07-26 10:25:00,62.7,60.0,29.92,NNW,336,1.0,8.0,91,0.00,,,0.10,Wunderground v.1.15,2013-07-26 14:25:00,
2013-07-26 10:28:00,62.7,60.0,29.92,NNE,19,1.0,8.0,91,0.00,,,0.10,Wunderground v.1.15,2013-07-26 14:28:00,
2013-07-26 10:29:00,62.7,59.7,29.92,NNE,16,1.0,8.0,90,0.00,,,0.10,Wunderground v.1.15,2013-07-26 14:29:00,
2013-07-26 10:31:00,62.7,59.7,29.92,NNE,22,2.0,8.0,90,0.00,,,0.10,Wunderground v.1.15,2013-07-26 14:31:00,
2013-07-26 10:33:00,62.7,59.7,29.92,NNW,346,2.0,8.0,90,0.00,,,0.10,Wunderground v.1.15,2013-07-26 14:33:00,
2013-07-26 10:35:00,62.7,59.7,29.92,North,350,2.0,8.0,90,0.00,,,0.10,Wunderground v.1.15,2013-07-26 14:35:00,
2013-07-26 10:36:00,62.7,59.7,29.92,North,360,2.0,8.0,90,0.00,,,0.10,Wunderground v.1.15,2013-07-26 14:36:00,
2013-07-26 10:39:00,62.8,59.8,29.92,NNE,30,2.0,8.0,90,0.00,,,0.10,Wunderground v.1.15,2013-07-26 14:39:00,
2013-07-26 10:40:00,62.8,59.8,29.92,NNE,28,2.0,2.0,90,0.00,,,0.10,Wunderground v.1.15,2013-07-26 14:40:00,
2013-07-26 10:43:00,62.9,59.9,29.92,NNE,28,2.0,8.0,90,0.00,,,0.10,Wunderground v.1.15,2013-07-26 14:43:00,
2013-07-26 10:44:00,62.9,59.9,29.92,NNE,28,1.0,8.0,90,0.00,,,0.10,Wunderground v.1.15,2013-07-26 14:44:00,
2013-07-26 10:45:00,62.9,59.9,29.92,NNE,32,2.0,8.0,90,0.00,,,0.10,Wunderground v.1.15,2013-07-26 14:45:00,
2013-07-26 10:46:00,62.9,59.9,29.92,NE,37,2.0,8.0,90,0.00,,,0.10,Wunderground v.1.15,2013-07-26 14:46:00,
2013-07-26 10:51:00,63.1,60.4,29.92,NNE,32,1.0,8.0,91,0.00,,,0.10,Wunderground v.1.15,2013-07-26 14:51:00,
2013-07-26 10:53:00,63.2,60.5,29.92,NNE,32,1.0,8.0,91,0.00,,,0.10,Wunderground v.1.15,2013-07-26 14:53:00,
2013-07-26 10:55:00,63.3,60.6,29.92,NNW,344,1.0,8.0,91,0.00,,,0.10,Wunderground v.1.15,2013-07-26 14:55:00,
2013-07-26 10:56:00,63.3,60.9,29.92,North,5,1.0,8.0,92,0.00,,,0.10,Wunderground v.1.15,2013-07-26 14:56:00,
2013-07-26 10:57:00,63.3,60.3,29.92,North,5,1.0,8.0,90,0.00,,,0.10,Wunderground v.1.15,2013-07-26 14:57:00,
2013-07-26 10:58:00,63.3,60.3,29.92,NNE,20,1.0,8.0,90,0.00,,,0.10,Wunderground v.1.15,2013-07-26 14:58:00,
2013-07-26 11:00:00,63.4,60.4,29.92,North,355,1.0,1.0,90,0.00,,,0.10,Wunderground v.1.15,2013-07-26 15:00:00,
2013-07-26 11:03:00,63.4,60.4,29.92,North,355,1.0,7.0,90,0.00,,,0.10,Wunderground v.1.15,2013-07-26 15:03:00,
2013-07-26 11:04:00,63.4,60.4,29.92,North,360,1.0,7.0,90,0.00,,,0.10,Wunderground v.1.15,2013-07-26 15:04:00,
2013-07-26 11:05:00,63.4,60.4,29.92,NNW,331,1.0,7.0,90,0.00,,,0.10,Wunderground v.1.15,2013-07-26 15:05:00,
2013-07-26 11:07:00,63.4,60.1,29.92,North,355,1.0,7.0,89,0.00,,,0.10,Wunderground v.1.15,2013-07-26 15:07:00,
2013-07-26 11:08:00,63.4,60.1,29.92,North,11,1.0,7.0,89,0.00,,,0.10,Wunderground v.1.15,2013-07-26 15:08:00,
2013-07-26 11:09:00,63.4,60.1,29.92,NNE,16,1.0,7.0,89,0.00,,,0.10,Wunderground v.1.15,2013-07-26 15:09:00,
2013-07-26 11:11:00,63.4,60.1,29.92,NNE,32,1.0,7.0,89,0.00,,,0.10,Wunderground v.1.15,2013-07-26 15:11:00,
2013-07-26 11:14:00,63.4,60.1,29.92,NE,39,1.0,7.0,89,0.00,,,0.10,Wunderground v.1.15,2013-07-26 15:14:00,
2013-07-26 11:15:00,63.4,60.1,29.92,North,360,1.0,7.0,89,0.00,,,0.10,Wunderground v.1.15,2013-07-26 15:15:00,
2013-07-26 11:16:00,63.4,60.1,29.92,North,9,1.0,7.0,89,0.00,,,0.10,Wunderground v.1.15,2013-07-26 15:16:00,
2013-07-26 11:20:00,63.3,60.0,29.92,NNE,17,2.0,2.0,89,0.00,,,0.10,Wunderground v.1.15,2013-07-26 15:20:00,
2013-07-26 11:22:00,63.3,60.0,29.92,NNE,17,2.0,7.0,89,0.00,,,0.10,Wunderground v.1.15,2013-07-26 15:22:00,
2013-07-26 11:25:00,63.3,60.0,29.92,NNE,17,1.0,7.0,89,0.00,,,0.10,Wunderground v.1.15,2013-07-26 15:25:00,
2013-07-26 11:26:00,63.3,60.0,29.92,NNE,17,1.0,7.0,89,0.00,,,0.10,Wunderground v.1.15,2013-07-26 15:26:00,
2013-07-26 11:27:00,63.3,60.0,29.92,NNE,17,1.0,7.0,89,0.00,,,0.10,Wunderground v.1.15,2013-07-26 15:27:00,
2013-07-26 11:30:00,63.2,59.9,29.92,North,11,1.0,7.0,89,0.00,,,0.10,Wunderground v.1.15,2013-07-26 15:30:00,
2013-07-26 11:32:00,63.2,59.9,29.92,North,11,1.0,7.0,89,0.00,,,0.10,Wunderground v.1.15,2013-07-26 15:32:00,
2013-07-26 11:34:00,63.1,59.8,29.92,North,11,1.0,7.0,89,0.00,,,0.10,Wunderground v.1.15,2013-07-26 15:34:00,
2013-07-26 11:36:00,63.1,59.8,29.92,North,11,1.0,7.0,89,0.00,,,0.10,Wunderground v.1.15,2013-07-26 15:36:00,
2013-07-26 11:37:00,63.1,59.8,29.92,North,11,1.0,7.0,89,0.00,,,0.10,Wunderground v.1.15,2013-07-26 15:37:00,
2013-07-26 11:40:00,63.2,59.9,29.92,North,11,1.0,1.0,89,0.00,,,0.10,Wunderground v.1.15,2013-07-26 15:40:00,
2013-07-26 11:41:00,63.1,59.8,29.92,NNE,14,1.0,3.0,89,0.00,,,0.10,Wunderground v.1.15,2013-07-26 15:41:00,
2013-07-26 11:43:00,63.1,59.8,29.92,NNE,14,1.0,7.0,89,0.00,,,0.10,Wunderground v.1.15,2013-07-26 15:43:00,
2013-07-26 11:44:00,63.1,59.8,29.92,NNE,14,1.0,7.0,89,0.00,,,0.10,Wunderground v.1.15,2013-07-26 15:44:00,
2013-07-26 11:49:00,63.1,60.1,29.92,NNE,14,1.0,7.0,90,0.00,,,0.10,Wunderground v.1.15,2013-07-26 15:49:00,
2013-07-26 11:51:00,63.2,60.2,29.92,NNE,14,1.0,7.0,90,0.00,,,0.10,Wunderground v.1.15,2013-07-26 15:51:00,
2013-07-26 11:53:00,63.2,60.2,29.91,NNE,14,0.0,7.0,90,0.00,,,0.10,Wunderground v.1.15,2013-07-26 15:53:00,
2013-07-26 11:54:00,63.2,60.2,29.92,NNE,14,0.0,7.0,90,0.00,,,0.10,Wunderground v.1.15,2013-07-26 15:54:00,
2013-07-26 11:56:00,63.2,60.2,29.92,NNE,17,0.0,7.0,90,0.00,,,0.10,Wunderground v.1.15,2013-07-26 15:56:00,
2013-07-26 11:58:00,63.2,60.2,29.92,NNE,18,0.0,7.0,90,0.00,,,0.10,Wunderground v.1.15,2013-07-26 15:58:00,
2013-07-26 12:00:00,63.2,60.2,29.92,NNE,13,1.0,1.0,90,0.00,,,0.10,Wunderground v.1.15,2013-07-26 16:00:00,
2013-07-26 12:01:00,63.2,60.2,29.92,NNE,25,1.0,5.0,90,0.00,,,0.10,Wunderground v.1.15,2013-07-26 16:01:00,
2013-07-26 12:02:00,63.2,60.2,29.92,NNE,23,1.0,8.0,90,0.00,,,0.10,Wunderground v.1.15,2013-07-26 16:02:00,
2013-07-26 12:03:00,63.2,60.2,29.92,NNE,23,1.0,8.0,90,0.00,,,0.10,Wunderground v.1.15,2013-07-26 16:03:00,
2013-07-26 12:07:00,63.4,60.4,29.92,North,5,2.0,8.0,90,0.00,,,0.10,Wunderground v.1.15,2013-07-26 16:07:00,
2013-07-26 12:08:00,63.4,60.4,29.92,NNE,27,2.0,8.0,90,0.00,,,0.10,Wunderground v.1.15,2013-07-26 16:08:00,
2013-07-26 12:11:00,63.5,60.5,29.92,NNE,26,1.0,8.0,90,0.00,,,0.10,Wunderground v.1.15,2013-07-26 16:11:00,
2013-07-26 12:12:00,63.6,60.9,29.92,NNE,26,1.0,8.0,91,0.00,,,0.10,Wunderground v.1.15,2013-07-26 16:12:00,
2013-07-26 12:14:00,63.7,60.7,29.92,NNE,26,1.0,8.0,90,0.00,,,0.10,Wunderground v.1.15,2013-07-26 16:14:00,
2013-07-26 12:18:00,63.9,61.2,29.92,NNE,26,1.0,8.0,91,0.00,,,0.10,Wunderground v.1.15,2013-07-26 16:18:00,
2013-07-26 12:19:00,64.0,61.3,29.92,NNE,26,0.0,8.0,91,0.00,,,0.10,Wunderground v.1.15,2013-07-26 16:19:00,
2013-07-26 12:21:00,64.1,61.4,29.92,NNE,26,1.0,8.0,91,0.00,,,0.10,Wunderground v.1.15,2013-07-26 16:21:00,
2013-07-26 12:23:00,64.1,61.4,29.92,NNE,26,1.0,8.0,91,0.00,,,0.10,Wunderground v.1.15,2013-07-26 16:23:00,
2013-07-26 12:24:00,64.1,61.4,29.92,NNE,26,0.0,8.0,91,0.00,,,0.10,Wunderground v.1.15,2013-07-26 16:24:00,
2013-07-26 12:25:00,64.2,61.5,29.92,NNE,21,1.0,8.0,91,0.00,,,0.10,Wunderground v.1.15,2013-07-26 16:25:00,
2013-07-26 12:26:00,64.2,61.2,29.92,North,360,1.0,8.0,90,0.00,,,0.10,Wunderground v.1.15,2013-07-26 16:26:00,
2013-07-26 12:27:00,64.2,61.2,29.92,NNE,13,1.0,8.0,90,0.00,,,0.10,Wunderground v.1.15,2013-07-26 16:27:00,
2013-07-26 12:30:00,64.2,61.2,29.92,North,11,1.0,8.0,90,0.00,,,0.10,Wunderground v.1.15,2013-07-26 16:30:00,
2013-07-26 12:32:00,64.2,61.2,29.92,North,11,1.0,8.0,90,0.00,,,0.10,Wunderground v.1.15,2013-07-26 16:32:00,
2013-07-26 12:33:00,64.2,61.2,29.92,North,11,1.0,8.0,90,0.00,,,0.10,Wunderground v.1.15,2013-07-26 16:33:00,
2013-07-26 12:36:00,64.5,61.8,29.92,North,11,1.0,8.0,91,0.00,,,0.10,Wunderground v.1.15,2013-07-26 16:36:00,
2013-07-26 12:37:00,64.5,61.8,29.92,North,11,1.0,8.0,91,0.00,,,0.10,Wunderground v.1.15,2013-07-26 16:37:00,
2013-07-26 12:38:00,64.6,61.9,29.92,North,11,1.0,8.0,91,0.00,,,0.10,Wunderground v.1.15,2013-07-26 16:38:00,
2013-07-26 12:39:00,64.6,61.9,29.92,North,11,1.0,8.0,91,0.00,,,0.10,Wunderground v.1.15,2013-07-26 16:39:00,
2013-07-26 12:41:00,64.6,61.6,29.92,NNE,17,0.0,8.0,90,0.00,,,0.10,Wunderground v.1.15,2013-07-26 16:41:00,
2013-07-26 12:44:00,64.5,61.2,29.92,NNE,13,1.0,8.0,89,0.00,,,0.10,Wunderground v.1.15,2013-07-26 16:44:00,
2013-07-26 12:46:00,64.6,61.3,29.92,NNE,13,1.0,8.0,89,0.00,,,0.10,Wunderground v.1.15,2013-07-26 16:46:00,
2013-07-26 12:48:00,64.8,61.5,29.92,NNE,13,1.0,8.0,89,0.00,,,0.10,Wunderground v.1.15,2013-07-26 16:48:00,
2013-07-26 12:49:00,64.8,61.5,29.92,NNE,13,1.0,8.0,89,0.00,,,0.10,Wunderground v.1.15,2013-07-26 16:49:00,
2013-07-26 12:52:00,65.1,62.1,29.92,NNE,13,1.0,8.0,90,0.00,,,0.10,Wunderground v.1.15,2013-07-26 16:52:00,
2013-07-26 12:53:00,65.2,62.2,29.92,NNE,13,0.0,8.0,90,0.00,,,0.10,Wunderground v.1.15,2013-07-26 16:53:00,
2013-07-26 12:55:00,65.3,62.3,29.92,NNE,13,0.0,8.0,90,0.00,,,0.10,Wunderground v.1.15,2013-07-26 16:55:00,
2013-07-26 12:56:00,65.4,62.4,29.92,NNE,13,0.0,8.0,90,0.00,,,0.10,Wunderground v.1.15,2013-07-26 16:56:00,
2013-07-26 12:58:00,65.5,62.5,29.92,North,360,0.0,8.0,90,0.00,,,0.10,Wunderground v.1.15,2013-07-26 16:58:00,
2013-07-26 13:03:00,65.6,62.3,29.92,North,360,0.0,6.0,89,0.00,,,0.10,Wunderground v.1.15,2013-07-26 17:03:00,
2013-07-26 13:05:00,65.6,62.6,29.92,North,360,0.0,6.0,90,0.00,,,0.10,Wunderground v.1.15,2013-07-26 17:05:00,
2013-07-26 13:07:00,65.6,62.3,29.92,North,360,0.0,6.0,89,0.00,,,0.10,Wunderground v.1.15,2013-07-26 17:07:00,
2013-07-26 13:10:00,65.6,61.9,29.91,North,360,0.0,6.0,88,0.00,,,0.10,Wunderground v.1.15,2013-07-26 17:10:00,
2013-07-26 13:13:00,65.6,61.9,29.91,North,5,0.0,6.0,88,0.00,,,0.10,Wunderground v.1.15,2013-07-26 17:13:00,
2013-07-26 13:15:00,65.6,61.9,29.91,North,5,0.0,6.0,88,0.00,,,0.10,Wunderground v.1.15,2013-07-26 17:15:00,
2013-07-26 13:16:00,65.6,61.9,29.91,North,5,0.0,6.0,88,0.00,,,0.10,Wunderground v.1.15,2013-07-26 17:16:00,
2013-07-26 13:19:00,65.6,61.9,29.91,North,5,0.0,6.0,88,0.00,,,0.10,Wunderground v.1.15,2013-07-26 17:19:00,
2013-07-26 13:20:00,65.5,61.9,29.91,North,5,0.0,6.0,88,0.00,,,0.10,Wunderground v.1.15,2013-07-26 17:20:00,
2013-07-26 13:21:00,65.6,61.9,29.91,North,5,0.0,6.0,88,0.00,,,0.10,Wunderground v.1.15,2013-07-26 17:21:00,
2013-07-26 13:26:00,65.4,61.4,29.91,North,5,0.0,6.0,87,0.00,,,0.10,Wunderground v.1.15,2013-07-26 17:26:00,
2013-07-26 13:28:00,65.5,61.9,29.91,ENE,58,0.0,6.0,88,0.00,,,0.10,Wunderground v.1.15,2013-07-26 17:28:00,
2013-07-26 13:29:00,65.5,61.9,29.91,ENE,58,0.0,6.0,88,0.00,,,0.10,Wunderground v.1.15,2013-07-26 17:29:00,
2013-07-26 13:30:00,65.5,61.9,29.91,ENE,58,0.0,6.0,88,0.00,,,0.10,Wunderground v.1.15,2013-07-26 17:30:00,
2013-07-26 13:31:00,65.5,61.9,29.90,ENE,58,0.0,6.0,88,0.00,,,0.10,Wunderground v.1.15,2013-07-26 17:31:00,
2013-07-26 13:34:00,65.5,61.9,29.90,ENE,58,0.0,6.0,88,0.00,,,0.10,Wunderground v.1.15,2013-07-26 17:34:00,
2013-07-26 13:37:00,65.6,61.9,29.90,ENE,58,0.0,6.0,88,0.00,,,0.10,Wunderground v.1.15,2013-07-26 17:37:00,
2013-07-26 13:38:00,65.6,61.9,29.90,ENE,58,0.0,6.0,88,0.00,,,0.10,Wunderground v.1.15,2013-07-26 17:38:00,
2013-07-26 13:39:00,65.5,61.9,29.90,NE,55,0.0,6.0,88,0.00,,,0.10,Wunderground v.1.15,2013-07-26 17:39:00,
2013-07-26 13:41:00,65.4,61.8,29.90,NE,55,0.0,6.0,88,0.00,,,0.10,Wunderground v.1.15,2013-07-26 17:41:00,
2013-07-26 13:42:00,65.5,62.2,29.90,NE,55,0.0,6.0,89,0.00,,,0.10,Wunderground v.1.15,2013-07-26 17:42:00,
2013-07-26 13:43:00,65.5,62.2,29.90,NE,55,0.0,6.0,89,0.00,,,0.10,Wunderground v.1.15,2013-07-26 17:43:00,
2013-07-26 13:46:00,65.5,62.2,29.90,NE,55,0.0,6.0,89,0.00,,,0.10,Wunderground v.1.15,2013-07-26 17:46:00,
2013-07-26 13:47:00,65.6,62.3,29.90,NE,55,0.0,6.0,89,0.00,,,0.10,Wunderground v.1.15,2013-07-26 17:47:00,
2013-07-26 13:50:00,65.6,62.3,29.90,NE,55,0.0,6.0,89,0.00,,,0.10,Wunderground v.1.15,2013-07-26 17:50:00,
2013-07-26 13:51:00,65.6,62.3,29.90,NE,55,0.0,6.0,89,0.00,,,0.10,Wunderground v.1.15,2013-07-26 17:51:00,
2013-07-26 13:53:00,65.7,62.4,29.90,NE,55,0.0,6.0,89,0.00,,,0.10,Wunderground v.1.15,2013-07-26 17:53:00,
2013-07-26 13:55:00,65.7,62.4,29.90,NE,55,0.0,6.0,89,0.00,,,0.10,Wunderground v.1.15,2013-07-26 17:55:00,
2013-07-26 13:56:00,65.7,62.0,29.90,NE,55,1.0,6.0,88,0.00,,,0.10,Wunderground v.1.15,2013-07-26 17:56:00,
2013-07-26 13:58:00,65.7,62.0,29.90,NE,55,1.0,6.0,88,0.00,,,0.10,Wunderground v.1.15,2013-07-26 17:58:00,
2013-07-26 14:00:00,65.7,62.0,29.90,NE,55,1.0,4.0,88,0.00,,,0.10,Wunderground v.1.15,2013-07-26 18:00:00,
2013-07-26 14:03:00,65.9,62.6,29.90,NE,55,1.0,4.0,89,0.00,,,0.10,Wunderground v.1.15,2013-07-26 18:03:00,
2013-07-26 14:06:00,66.2,63.2,29.90,NE,55,0.0,4.0,90,0.00,,,0.10,Wunderground v.1.15,2013-07-26 18:06:00,
2013-07-26 14:07:00,66.4,63.4,29.90,NE,55,0.0,4.0,90,0.00,,,0.10,Wunderground v.1.15,2013-07-26 18:07:00,
2013-07-26 14:09:00,66.5,63.2,29.90,NE,55,0.0,4.0,89,0.00,,,0.10,Wunderground v.1.15,2013-07-26 18:09:00,
2013-07-26 14:11:00,66.7,63.4,29.90,NE,55,0.0,4.0,89,0.00,,,0.10,Wunderground v.1.15,2013-07-26 18:11:00,
2013-07-26 14:12:00,66.7,63.4,29.90,NE,55,0.0,4.0,89,0.00,,,0.10,Wunderground v.1.15,2013-07-26 18:12:00,
2013-07-26 14:16:00,67.0,63.6,29.90,NE,55,0.0,4.0,89,0.00,,,0.10,Wunderground v.1.15,2013-07-26 18:16:00,
2013-07-26 14:17:00,67.1,63.7,29.90,NE,55,0.0,4.0,89,0.00,,,0.10,Wunderground v.1.15,2013-07-26 18:17:00,
2013-07-26 14:18:00,67.1,63.4,29.90,NE,55,0.0,4.0,88,0.00,,,0.10,Wunderground v.1.15,2013-07-26 18:18:00,
2013-07-26 14:19:00,67.2,63.5,29.90,NE,55,0.0,4.0,88,0.00,,,0.10,Wunderground v.1.15,2013-07-26 18:19:00,
2013-07-26 14:20:00,67.3,63.6,29.90,NE,55,0.0,4.0,88,0.00,,,0.10,Wunderground v.1.15,2013-07-26 18:20:00,
2013-07-26 14:23:00,67.5,63.8,29.90,NE,55,0.0,4.0,88,0.00,,,0.10,Wunderground v.1.15,2013-07-26 18:23:00,
2013-07-26 14:24:00,67.6,63.9,29.90,East,90,0.0,4.0,88,0.00,,,0.10,Wunderground v.1.15,2013-07-26 18:24:00,
2013-07-26 14:28:00,67.9,63.9,29.90,East,90,0.0,4.0,87,0.00,,,0.10,Wunderground v.1.15,2013-07-26 18:28:00,
2013-07-26 14:30:00,68.2,64.5,29.90,East,90,0.0,4.0,88,0.00,,,0.10,Wunderground v.1.15,2013-07-26 18:30:00,
2013-07-26 14:33:00,68.2,64.2,29.90,East,90,0.0,4.0,87,0.00,,,0.10,Wunderground v.1.15,2013-07-26 18:33:00,
2013-07-26 14:35:00,68.3,64.3,29.90,East,90,0.0,4.0,87,0.00,,,0.10,Wunderground v.1.15,2013-07-26 18:35:00,
2013-07-26 14:36:00,68.3,64.3,29.90,East,90,0.0,4.0,87,0.00,,,0.10,Wunderground v.1.15,2013-07-26 18:36:00,
2013-07-26 14:37:00,68.4,64.4,29.90,East,90,0.0,4.0,87,0.00,,,0.10,Wunderground v.1.15,2013-07-26 18:37:00,
2013-07-26 14:42:00,68.5,64.1,29.90,East,90,0.0,4.0,86,0.00,,,0.10,Wunderground v.1.15,2013-07-26 18:42:00,
2013-07-26 14:43:00,68.5,64.5,29.90,East,90,0.0,4.0,87,0.00,,,0.10,Wunderground v.1.15,2013-07-26 18:43:00,
2013-07-26 14:44:00,68.5,64.5,29.90,East,90,0.0,4.0,87,0.00,,,0.10,Wunderground v.1.15,2013-07-26 18:44:00,
2013-07-26 14:45:00,68.6,64.6,29.90,East,90,0.0,4.0,87,0.00,,,0.10,Wunderground v.1.15,2013-07-26 18:45:00,
2013-07-26 14:47:00,68.6,64.6,29.90,East,90,0.0,4.0,87,0.00,,,0.10,Wunderground v.1.15,2013-07-26 18:47:00,
2013-07-26 14:48:00,68.7,64.7,29.90,East,90,0.0,4.0,87,0.00,,,0.10,Wunderground v.1.15,2013-07-26 18:48:00,
2013-07-26 14:49:00,68.7,64.7,29.90,East,90,0.0,4.0,87,0.00,,,0.10,Wunderground v.1.15,2013-07-26 18:49:00,
2013-07-26 14:52:00,68.6,64.2,29.90,East,90,0.0,4.0,86,0.00,,,0.10,Wunderground v.1.15,2013-07-26 18:52:00,
2013-07-26 14:53:00,68.6,64.2,29.90,East,90,0.0,4.0,86,0.00,,,0.10,Wunderground v.1.15,2013-07-26 18:53:00,
2013-07-26 14:55:00,68.5,63.8,29.90,East,90,0.0,4.0,85,0.00,,,0.10,Wunderground v.1.15,2013-07-26 18:55:00,
2013-07-26 14:57:00,68.5,64.1,29.90,East,90,0.0,4.0,86,0.00,,,0.10,Wunderground v.1.15,2013-07-26 18:57:00,
2013-07-26 14:58:00,68.6,63.9,29.90,East,90,0.0,4.0,85,0.00,,,0.10,Wunderground v.1.15,2013-07-26 18:58:00,
2013-07-26 15:01:00,68.6,64.2,29.90,East,90,0.0,4.0,86,0.00,,,0.10,Wunderground v.1.15,2013-07-26 19:01:00,
2013-07-26 15:02:00,68.7,64.7,29.90,East,90,0.0,4.0,87,0.00,,,0.10,Wunderground v.1.15,2013-07-26 19:02:00,
2013-07-26 15:04:00,68.8,64.8,29.90,East,90,0.0,4.0,87,0.00,,,0.10,Wunderground v.1.15,2013-07-26 19:04:00,
2013-07-26 15:05:00,68.8,64.8,29.90,East,90,0.0,4.0,87,0.00,,,0.10,Wunderground v.1.15,2013-07-26 19:05:00,
2013-07-26 15:06:00,68.8,64.8,29.90,East,90,0.0,4.0,87,0.00,,,0.10,Wunderground v.1.15,2013-07-26 19:06:00,
2013-07-26 15:08:00,68.8,64.4,29.90,East,90,0.0,4.0,86,0.00,,,0.10,Wunderground v.1.15,2013-07-26 19:08:00,
2013-07-26 15:09:00,68.8,64.4,29.90,East,90,0.0,4.0,86,0.00,,,0.10,Wunderground v.1.15,2013-07-26 19:09:00,
2013-07-26 15:14:00,68.8,64.1,29.90,East,90,0.0,4.0,85,0.00,,,0.10,Wunderground v.1.15,2013-07-26 19:14:00,
2013-07-26 15:15:00,68.8,63.8,29.90,East,90,0.0,4.0,84,0.00,,,0.10,Wunderground v.1.15,2013-07-26 19:15:00,
2013-07-26 15:17:00,68.9,64.5,29.90,East,90,0.0,4.0,86,0.00,,,0.10,Wunderground v.1.15,2013-07-26 19:17:00,
2013-07-26 15:19:00,68.9,64.2,29.90,East,90,0.0,4.0,85,0.00,,,0.10,Wunderground v.1.15,2013-07-26 19:19:00,
2013-07-26 15:20:00,68.9,63.9,29.90,East,90,0.0,4.0,84,0.00,,,0.10,Wunderground v.1.15,2013-07-26 19:20:00,
2013-07-26 15:22:00,68.9,63.9,29.90,East,90,0.0,4.0,84,0.00,,,0.10,Wunderground v.1.15,2013-07-26 19:22:00,
2013-07-26 15:26:00,69.0,64.3,29.90,East,90,0.0,4.0,85,0.00,,,0.10,Wunderground v.1.15,2013-07-26 19:26:00,
2013-07-26 15:28:00,69.0,64.3,29.90,East,90,0.0,4.0,85,0.00,,,0.10,Wunderground v.1.15,2013-07-26 19:28:00,
2013-07-26 15:29:00,69.0,64.3,29.90,East,90,0.0,4.0,85,0.00,,,0.10,Wunderground v.1.15,2013-07-26 19:29:00,
2013-07-26 15:30:00,69.0,64.3,29.90,East,90,0.0,4.0,85,0.00,,,0.10,Wunderground v.1.15,2013-07-26 19:30:00,
2013-07-26 15:34:00,69.2,64.8,29.90,East,90,0.0,4.0,86,0.00,,,0.10,Wunderground v.1.15,2013-07-26 19:34:00,
2013-07-26 15:36:00,69.2,64.8,29.89,East,90,0.0,4.0,86,0.00,,,0.10,Wunderground v.1.15,2013-07-26 19:36:00,
2013-07-26 15:37:00,69.2,64.8,29.89,East,90,0.0,4.0,86,0.00,,,0.10,Wunderground v.1.15,2013-07-26 19:37:00,
2013-07-26 15:38:00,69.2,64.5,29.89,East,90,0.0,4.0,85,0.00,,,0.10,Wunderground v.1.15,2013-07-26 19:38:00,
2013-07-26 15:43:00,69.2,64.2,29.89,East,90,0.0,4.0,84,0.00,,,0.10,Wunderground v.1.15,2013-07-26 19:43:00,
2013-07-26 15:44:00,69.2,64.2,29.89,East,90,0.0,4.0,84,0.00,,,0.10,Wunderground v.1.15,2013-07-26 19:44:00,
2013-07-26 15:45:00,69.2,64.2,29.89,East,90,0.0,4.0,84,0.00,,,0.10,Wunderground v.1.15,2013-07-26 19:45:00,
2013-07-26 15:47:00,69.2,64.2,29.89,East,90,0.0,4.0,84,0.00,,,0.10,Wunderground v.1.15,2013-07-26 19:47:00,
2013-07-26 15:48:00,69.2,63.8,29.90,East,90,0.0,4.0,83,0.00,,,0.10,Wunderground v.1.15,2013-07-26 19:48:00,
2013-07-26 15:49:00,69.2,63.8,29.90,East,90,0.0,4.0,83,0.00,,,0.10,Wunderground v.1.15,2013-07-26 19:49:00,
2013-07-26 15:51:00,69.1,63.4,29.90,East,90,0.0,4.0,82,0.00,,,0.10,Wunderground v.1.15,2013-07-26 19:51:00,
2013-07-26 15:54:00,69.2,63.8,29.90,East,90,0.0,4.0,83,0.00,,,0.10,Wunderground v.1.15,2013-07-26 19:54:00,
2013-07-26 15:56:00,69.2,64.2,29.89,East,90,0.0,4.0,84,0.00,,,0.10,Wunderground v.1.15,2013-07-26 19:56:00,
2013-07-26 15:58:00,69.3,64.3,29.89,East,90,0.0,4.0,84,0.00,,,0.10,Wunderground v.1.15,2013-07-26 19:58:00,
2013-07-26 16:00:00,69.4,64.4,29.89,East,90,0.0,1.0,84,0.00,,,0.10,Wunderground v.1.15,2013-07-26 20:00:00,
2013-07-26 16:01:00,69.4,64.4,29.89,East,90,0.0,1.0,84,0.00,,,0.10,Wunderground v.1.15,2013-07-26 20:01:00,
2013-07-26 16:05:00,69.6,64.5,29.89,East,90,0.0,1.0,84,0.00,,,0.10,Wunderground v.1.15,2013-07-26 20:05:00,
2013-07-26 16:07:00,69.6,63.9,29.90,East,90,0.0,1.0,82,0.00,,,0.10,Wunderground v.1.15,2013-07-26 20:07:00,
2013-07-26 16:12:00,69.7,64.3,29.90,East,90,0.0,1.0,83,0.00,,,0.10,Wunderground v.1.15,2013-07-26 20:12:00,
2013-07-26 16:15:00,69.7,63.6,29.90,East,90,0.0,1.0,81,0.00,,,0.10,Wunderground v.1.15,2013-07-26 20:15:00,
2013-07-26 16:17:00,69.7,64.0,29.90,East,90,0.0,1.0,82,0.00,,,0.10,Wunderground v.1.15,2013-07-26 20:17:00,
2013-07-26 16:19:00,69.8,64.1,29.90,East,90,0.0,1.0,82,0.00,,,0.10,Wunderground v.1.15,2013-07-26 20:19:00,
2013-07-26 16:20:00,69.8,64.1,29.90,East,90,0.0,1.0,82,0.00,,,0.10,Wunderground v.1.15,2013-07-26 20:20:00,
2013-07-26 16:21:00,69.9,64.5,29.90,East,90,0.0,1.0,83,0.00,,,0.10,Wunderground v.1.15,2013-07-26 20:21:00,
2013-07-26 16:22:00,69.9,64.2,29.90,East,90,0.0,1.0,82,0.00,,,0.10,Wunderground v.1.15,2013-07-26 20:22:00,
2013-07-26 16:25:00,69.9,63.8,29.90,East,90,0.0,1.0,81,0.00,,,0.10,Wunderground v.1.15,2013-07-26 20:25:00,
2013-07-26 16:28:00,69.8,63.7,29.90,East,90,0.0,1.0,81,0.00,,,0.10,Wunderground v.1.15,2013-07-26 20:28:00,
2013-07-26 16:30:00,69.8,63.7,29.90,East,90,0.0,1.0,81,0.00,,,0.10,Wunderground v.1.15,2013-07-26 20:30:00,
2013-07-26 16:31:00,69.8,63.3,29.90,East,90,0.0,1.0,80,0.00,,,0.10,Wunderground v.1.15,2013-07-26 20:31:00,
2013-07-26 16:34:00,69.7,63.3,29.90,East,90,0.0,1.0,80,0.00,,,0.10,Wunderground v.1.15,2013-07-26 20:34:00,
2013-07-26 16:35:00,69.7,63.3,29.90,East,90,0.0,1.0,80,0.00,,,0.10,Wunderground v.1.15,2013-07-26 20:35:00,
2013-07-26 16:37:00,69.7,63.6,29.90,East,90,0.0,1.0,81,0.00,,,0.10,Wunderground v.1.15,2013-07-26 20:37:00,
2013-07-26 16:38:00,69.7,64.0,29.89,East,90,0.0,1.0,82,0.00,,,0.10,Wunderground v.1.15,2013-07-26 20:38:00,
2013-07-26 16:42:00,69.7,63.6,29.90,East,90,0.0,1.0,81,0.00,,,0.10,Wunderground v.1.15,2013-07-26 20:42:00,
2013-07-26 16:43:00,69.7,64.0,29.89,East,90,0.0,1.0,82,0.00,,,0.10,Wunderground v.1.15,2013-07-26 20:43:00,
2013-07-26 16:44:00,69.7,64.0,29.89,East,90,0.0,1.0,82,0.00,,,0.10,Wunderground v.1.15,2013-07-26 20:44:00,
2013-07-26 16:45:00,69.7,64.3,29.89,East,90,0.0,1.0,83,0.00,,,0.10,Wunderground v.1.15,2013-07-26 20:45:00,
2013-07-26 16:48:00,69.8,64.4,29.89,East,90,0.0,1.0,83,0.00,,,0.10,Wunderground v.1.15,2013-07-26 20:48:00,
2013-07-26 16:50:00,69.9,64.8,29.89,East,90,0.0,1.0,84,0.00,,,0.10,Wunderground v.1.15,2013-07-26 20:50:00,
2013-07-26 16:51:00,69.9,64.5,29.89,East,90,0.0,1.0,83,0.00,,,0.10,Wunderground v.1.15,2013-07-26 20:51:00,
2013-07-26 16:52:00,69.9,64.5,29.89,East,90,0.0,1.0,83,0.00,,,0.10,Wunderground v.1.15,2013-07-26 20:52:00,
2013-07-26 16:54:00,69.9,64.5,29.89,East,90,0.0,1.0,83,0.00,,,0.10,Wunderground v.1.15,2013-07-26 20:54:00,
2013-07-26 16:58:00,70.0,64.2,29.89,East,90,0.0,1.0,82,0.00,,,0.10,Wunderground v.1.15,2013-07-26 20:58:00,
2013-07-26 17:00:00,70.1,64.3,29.89,East,90,0.0,1.0,82,0.00,,,0.10,Wunderground v.1.15,2013-07-26 21:00:00,
2013-07-26 17:04:00,70.1,63.6,29.89,East,90,0.0,1.0,80,0.00,,,0.10,Wunderground v.1.15,2013-07-26 21:04:00,
2013-07-26 17:06:00,70.2,63.7,29.89,East,90,0.0,1.0,80,0.00,,,0.10,Wunderground v.1.15,2013-07-26 21:06:00,
2013-07-26 17:09:00,70.4,64.6,29.89,East,90,0.0,1.0,82,0.00,,,0.10,Wunderground v.1.15,2013-07-26 21:09:00,
2013-07-26 17:11:00,70.5,64.0,29.89,East,90,0.0,1.0,80,0.00,,,0.10,Wunderground v.1.15,2013-07-26 21:11:00,
2013-07-26 17:13:00,70.5,64.0,29.89,East,90,0.0,1.0,80,0.00,,,0.10,Wunderground v.1.15,2013-07-26 21:13:00,
2013-07-26 17:15:00,70.6,64.1,29.89,East,90,0.0,1.0,80,0.00,,,0.10,Wunderground v.1.15,2013-07-26 21:15:00,
2013-07-26 17:19:00,70.9,64.8,29.89,East,90,0.0,1.0,81,0.00,,,0.10,Wunderground v.1.15,2013-07-26 21:19:00,
2013-07-26 17:20:00,71.0,64.5,29.89,East,90,0.0,1.0,80,0.00,,,0.10,Wunderground v.1.15,2013-07-26 21:20:00,
2013-07-26 17:25:00,71.1,64.3,29.89,East,90,0.0,1.0,79,0.00,,,0.10,Wunderground v.1.15,2013-07-26 21:25:00,
2013-07-26 17:26:00,71.1,64.3,29.89,East,90,0.0,1.0,79,0.00,,,0.10,Wunderground v.1.15,2013-07-26 21:26:00,
2013-07-26 17:28:00,71.2,64.7,29.89,East,90,0.0,1.0,80,0.00,,,0.10,Wunderground v.1.15,2013-07-26 21:28:00,
2013-07-26 17:30:00,71.3,64.8,29.89,East,90,0.0,1.0,80,0.00,,,0.10,Wunderground v.1.15,2013-07-26 21:30:00,
2013-07-26 17:32:00,71.3,64.8,29.89,East,90,0.0,1.0,80,0.00,,,0.10,Wunderground v.1.15,2013-07-26 21:32:00,
2013-07-26 17:34:00,71.4,64.5,29.89,East,90,0.0,1.0,79,0.00,,,0.10,Wunderground v.1.15,2013-07-26 21:34:00,
2013-07-26 17:35:00,71.4,64.5,29.89,East,90,0.0,1.0,79,0.00,,,0.10,Wunderground v.1.15,2013-07-26 21:35:00,
2013-07-26 17:38:00,71.4,64.9,29.89,East,90,0.0,1.0,80,0.00,,,0.10,Wunderground v.1.15,2013-07-26 21:38:00,
2013-07-26 17:40:00,71.5,65.4,29.89,East,90,0.0,1.0,81,0.00,,,0.10,Wunderground v.1.15,2013-07-26 21:40:00,
2013-07-26 17:41:00,71.5,65.4,29.89,East,90,0.0,1.0,81,0.00,,,0.10,Wunderground v.1.15,2013-07-26 21:41:00,
2013-07-26 17:44:00,71.6,65.1,29.89,East,90,0.0,1.0,80,0.00,,,0.10,Wunderground v.1.15,2013-07-26 21:44:00,
2013-07-26 17:47:00,71.7,65.2,29.89,East,90,0.0,1.0,80,0.00,,,0.10,Wunderground v.1.15,2013-07-26 21:47:00,
2013-07-26 17:50:00,71.8,65.3,29.89,East,90,0.0,1.0,80,0.00,,,0.10,Wunderground v.1.15,2013-07-26 21:50:00,
2013-07-26 17:53:00,71.8,65.3,29.89,East,90,0.0,1.0,80,0.00,,,0.10,Wunderground v.1.15,2013-07-26 21:53:00,
2013-07-26 17:54:00,71.9,65.0,29.89,East,90,0.0,1.0,79,0.00,,,0.10,Wunderground v.1.15,2013-07-26 21:54:00,
2013-07-26 17:55:00,71.9,65.4,29.89,East,90,0.0,1.0,80,0.00,,,0.10,Wunderground v.1.15,2013-07-26 21:55:00,
2013-07-26 17:57:00,71.9,65.4,29.89,East,90,0.0,1.0,80,0.00,,,0.10,Wunderground v.1.15,2013-07-26 21:57:00,
2013-07-26 17:59:00,72.0,65.5,29.89,East,90,0.0,1.0,80,0.00,,,0.10,Wunderground v.1.15,2013-07-26 21:59:00,
2013-07-26 18:00:00,72.0,65.1,29.89,East,90,0.0,1.0,79,0.00,,,0.10,Wunderground v.1.15,2013-07-26 22:00:00,
2013-07-26 18:02:00,71.9,64.3,29.89,East,90,0.0,1.0,77,0.00,,,0.10,Wunderground v.1.15,2013-07-26 22:02:00,
2013-07-26 18:03:00,71.9,64.3,29.89,East,90,0.0,1.0,77,0.00,,,0.10,Wunderground v.1.15,2013-07-26 22:03:00,
2013-07-26 18:07:00,71.9,64.3,29.89,East,90,0.0,1.0,77,0.00,,,0.10,Wunderground v.1.15,2013-07-26 22:07:00,
2013-07-26 18:08:00,71.9,64.7,29.89,East,90,0.0,1.0,78,0.00,,,0.10,Wunderground v.1.15,2013-07-26 22:08:00,
2013-07-26 18:10:00,72.0,64.8,29.89,East,90,0.0,1.0,78,0.00,,,0.10,Wunderground v.1.15,2013-07-26 22:10:00,
2013-07-26 18:11:00,72.0,64.8,29.89,East,90,0.0,1.0,78,0.00,,,0.10,Wunderground v.1.15,2013-07-26 22:11:00,
2013-07-26 18:14:00,72.0,64.4,29.89,East,90,0.0,1.0,77,0.00,,,0.10,Wunderground v.1.15,2013-07-26 22:14:00,
2013-07-26 18:16:00,72.0,63.6,29.89,East,90,0.0,1.0,75,0.00,,,0.10,Wunderground v.1.15,2013-07-26 22:16:00,
2013-07-26 18:17:00,72.1,64.1,29.89,East,90,0.0,1.0,76,0.00,,,0.10,Wunderground v.1.15,2013-07-26 22:17:00,
2013-07-26 18:21:00,72.1,64.1,29.89,East,90,0.0,1.0,76,0.00,,,0.10,Wunderground v.1.15,2013-07-26 22:21:00,
2013-07-26 18:22:00,72.1,63.4,29.89,East,90,0.0,1.0,74,0.00,,,0.10,Wunderground v.1.15,2013-07-26 22:22:00,
2013-07-26 18:23:00,72.1,63.4,29.89,East,90,0.0,1.0,74,0.00,,,0.10,Wunderground v.1.15,2013-07-26 22:23:00,
2013-07-26 18:25:00,72.1,63.0,29.89,East,90,0.0,1.0,73,0.00,,,0.10,Wunderground v.1.15,2013-07-26 22:25:00,
2013-07-26 18:28:00,72.1,63.4,29.89,East,90,0.0,4.0,74,0.00,,,0.10,Wunderground v.1.15,2013-07-26 22:28:00,
2013-07-26 18:30:00,72.0,62.5,29.89,East,90,0.0,1.0,72,0.00,,,0.10,Wunderground v.1.15,2013-07-26 22:30:00,
2013-07-26 18:31:00,71.9,62.4,29.89,East,90,0.0,1.0,72,0.00,,,0.10,Wunderground v.1.15,2013-07-26 22:31:00,
2013-07-26 18:35:00,71.7,61.8,29.90,East,90,0.0,1.0,71,0.00,,,0.10,Wunderground v.1.15,2013-07-26 22:35:00,
2013-07-26 18:37:00,71.7,62.6,29.89,East,90,0.0,1.0,73,0.00,,,0.10,Wunderground v.1.15,2013-07-26 22:37:00,
2013-07-26 18:39:00,71.7,62.6,29.89,East,90,0.0,1.0,73,0.00,,,0.10,Wunderground v.1.15,2013-07-26 22:39:00,
2013-07-26 18:40:00,71.7,62.2,29.89,East,90,0.0,1.0,72,0.00,,,0.10,Wunderground v.1.15,2013-07-26 22:40:00,
2013-07-26 18:41:00,71.6,62.1,29.90,East,90,0.0,1.0,72,0.00,,,0.10,Wunderground v.1.15,2013-07-26 22:41:00,
2013-07-26 18:42:00,71.6,62.1,29.89,East,90,0.0,1.0,72,0.00,,,0.10,Wunderground v.1.15,2013-07-26 22:42:00,
2013-07-26 18:46:00,71.7,63.0,29.89,East,90,0.0,1.0,74,0.00,,,0.10,Wunderground v.1.15,2013-07-26 22:46:00,
2013-07-26 18:47:00,71.7,62.6,29.89,East,90,0.0,1.0,73,0.00,,,0.10,Wunderground v.1.15,2013-07-26 22:47:00,
2013-07-26 18:48:00,71.7,63.0,29.90,East,90,0.0,1.0,74,0.00,,,0.10,Wunderground v.1.15,2013-07-26 22:48:00,
2013-07-26 18:53:00,71.7,62.6,29.90,East,90,0.0,1.0,73,0.00,,,0.10,Wunderground v.1.15,2013-07-26 22:53:00,
2013-07-26 18:54:00,71.6,62.1,29.90,East,90,0.0,1.0,72,0.00,,,0.10,Wunderground v.1.15,2013-07-26 22:54:00,
2013-07-26 18:56:00,71.6,62.1,29.89,East,90,0.0,4.0,72,0.00,,,0.10,Wunderground v.1.15,2013-07-26 22:56:00,
2013-07-26 18:58:00,71.5,62.4,29.89,East,90,0.0,4.0,73,0.00,,,0.10,Wunderground v.1.15,2013-07-26 22:58:00,
2013-07-26 19:00:00,71.4,62.3,29.89,East,90,0.0,1.0,73,0.00,,,0.10,Wunderground v.1.15,2013-07-26 23:00:00,
2013-07-26 19:02:00,71.3,62.2,29.89,East,90,0.0,1.0,73,0.00,,,0.10,Wunderground v.1.15,2013-07-26 23:02:00,
2013-07-26 19:03:00,71.3,62.2,29.89,East,90,0.0,1.0,73,0.00,,,0.10,Wunderground v.1.15,2013-07-26 23:03:00,
2013-07-26 19:08:00,71.3,63.3,29.89,East,90,0.0,1.0,76,0.00,,,0.10,Wunderground v.1.15,2013-07-26 23:08:00,
2013-07-26 19:09:00,71.3,63.7,29.89,East,90,0.0,1.0,77,0.00,,,0.10,Wunderground v.1.15,2013-07-26 23:09:00,
2013-07-26 19:11:00,71.2,63.6,29.89,East,90,0.0,1.0,77,0.00,,,0.10,Wunderground v.1.15,2013-07-26 23:11:00,
2013-07-26 19:12:00,71.2,63.6,29.89,East,90,0.0,1.0,77,0.00,,,0.10,Wunderground v.1.15,2013-07-26 23:12:00,
2013-07-26 19:15:00,71.1,63.5,29.89,East,90,0.0,1.0,77,0.00,,,0.10,Wunderground v.1.15,2013-07-26 23:15:00,
2013-07-26 19:16:00,71.1,63.1,29.89,East,90,0.0,1.0,76,0.00,,,0.10,Wunderground v.1.15,2013-07-26 23:16:00,
2013-07-26 19:20:00,71.0,63.8,29.89,East,90,0.0,1.0,78,0.00,,,0.10,Wunderground v.1.15,2013-07-26 23:20:00,
2013-07-26 19:22:00,70.9,63.3,29.89,East,90,0.0,1.0,77,0.00,,,0.10,Wunderground v.1.15,2013-07-26 23:22:00,
2013-07-26 19:24:00,70.8,63.6,29.89,East,90,0.0,1.0,78,0.00,,,0.10,Wunderground v.1.15,2013-07-26 23:24:00,
2013-07-26 19:26:00,70.7,63.5,29.89,East,90,0.0,1.0,78,0.00,,,0.10,Wunderground v.1.15,2013-07-26 23:26:00,
2013-07-26 19:27:00,70.6,63.4,29.89,East,90,0.0,1.0,78,0.00,,,0.10,Wunderground v.1.15,2013-07-26 23:27:00,
2013-07-26 19:29:00,70.4,63.6,29.89,East,90,0.0,1.0,79,0.00,,,0.10,Wunderground v.1.15,2013-07-26 23:29:00,
2013-07-26 19:31:00,70.2,63.4,29.89,East,90,0.0,1.0,79,0.00,,,0.10,Wunderground v.1.15,2013-07-26 23:31:00,
2013-07-26 19:33:00,69.9,63.1,29.89,East,90,0.0,1.0,79,0.00,,,0.10,Wunderground v.1.15,2013-07-26 23:33:00,
2013-07-26 19:34:00,69.9,63.4,29.89,East,90,0.0,1.0,80,0.00,,,0.10,Wunderground v.1.15,2013-07-26 23:34:00,
2013-07-26 19:35:00,69.8,63.7,29.89,East,90,0.0,1.0,81,0.00,,,0.10,Wunderground v.1.15,2013-07-26 23:35:00,
2013-07-26 19:36:00,69.8,63.7,29.89,East,90,0.0,1.0,81,0.00,,,0.10,Wunderground v.1.15,2013-07-26 23:36:00,
2013-07-26 19:38:00,69.7,63.3,29.89,East,90,0.0,1.0,80,0.00,,,0.10,Wunderground v.1.15,2013-07-26 23:38:00,
2013-07-26 19:40:00,69.4,63.0,29.89,East,90,0.0,1.0,80,0.00,,,0.10,Wunderground v.1.15,2013-07-26 23:40:00,
2013-07-26 19:41:00,69.3,62.5,29.89,East,90,0.0,1.0,79,0.00,,,0.10,Wunderground v.1.15,2013-07-26 23:41:00,
2013-07-26 19:42:00,69.2,63.1,29.89,East,90,0.0,1.0,81,0.00,,,0.10,Wunderground v.1.15,2013-07-26 23:42:00,
2013-07-26 19:43:00,69.1,63.4,29.89,East,90,0.0,1.0,82,0.00,,,0.10,Wunderground v.1.15,2013-07-26 23:43:00,
2013-07-26 19:44:00,69.0,63.6,29.89,East,90,0.0,1.0,83,0.00,,,0.10,Wunderground v.1.15,2013-07-26 23:44:00,
2013-07-26 19:45:00,69.0,63.6,29.89,East,90,0.0,1.0,83,0.00,,,0.10,Wunderground v.1.15,2013-07-26 23:45:00,
2013-07-26 19:48:00,68.8,63.1,29.89,East,90,0.0,1.0,82,0.00,,,0.10,Wunderground v.1.15,2013-07-26 23:48:00,
2013-07-26 19:49:00,68.8,63.4,29.89,East,90,0.0,1.0,83,0.00,,,0.10,Wunderground v.1.15,2013-07-26 23:49:00,
2013-07-26 19:50:00,68.8,63.4,29.89,East,90,0.0,1.0,83,0.00,,,0.10,Wunderground v.1.15,2013-07-26 23:50:00,
2013-07-26 19:51:00,68.7,63.7,29.89,East,90,0.0,1.0,84,0.00,,,0.10,Wunderground v.1.15,2013-07-26 23:51:00,
2013-07-26 19:56:00,68.4,63.0,29.89,East,90,0.0,1.0,83,0.00,,,0.10,Wunderground v.1.15,2013-07-26 23:56:00,
2013-07-26 19:57:00,68.4,63.4,29.89,East,90,0.0,1.0,84,0.00,,,0.10,Wunderground v.1.15,2013-07-26 23:57:00,
2013-07-26 19:58:00,68.3,63.3,29.89,East,90,0.0,1.0,84,0.00,,,0.10,Wunderground v.1.15,2013-07-26 23:58:00,
2013-07-26 20:00:00,68.3,63.3,29.89,East,90,0.0,1.0,84,0.00,,,0.10,Wunderground v.1.15,2013-07-27 00:00:00,
2013-07-26 20:03:00,68.2,63.2,29.89,East,90,0.0,1.0,84,0.00,,,0.10,Wunderground v.1.15,2013-07-27 00:03:00,
2013-07-26 20:04:00,68.2,63.2,29.89,East,90,0.0,1.0,84,0.00,,,0.10,Wunderground v.1.15,2013-07-27 00:04:00,
2013-07-26 20:06:00,68.1,63.1,29.89,East,90,0.0,1.0,84,0.00,,,0.10,Wunderground v.1.15,2013-07-27 00:06:00,
2013-07-26 20:09:00,68.1,63.4,29.89,East,90,0.0,1.0,85,0.00,,,0.10,Wunderground v.1.15,2013-07-27 00:09:00,
2013-07-26 20:10:00,68.0,63.3,29.89,East,90,0.0,1.0,85,0.00,,,0.10,Wunderground v.1.15,2013-07-27 00:10:00,
2013-07-26 20:13:00,67.9,63.2,29.89,East,90,0.0,1.0,85,0.00,,,0.10,Wunderground v.1.15,2013-07-27 00:13:00,
2013-07-26 20:14:00,67.8,63.1,29.89,East,90,0.0,1.0,85,0.00,,,0.10,Wunderground v.1.15,2013-07-27 00:14:00,
2013-07-26 20:17:00,67.7,63.4,29.89,East,90,0.0,1.0,86,0.00,,,0.10,Wunderground v.1.15,2013-07-27 00:17:00,
2013-07-26 20:19:00,67.7,63.4,29.89,East,90,0.0,1.0,86,0.00,,,0.10,Wunderground v.1.15,2013-07-27 00:19:00,
2013-07-26 20:20:00,67.6,62.9,29.89,East,90,0.0,1.0,85,0.00,,,0.10,Wunderground v.1.15,2013-07-27 00:20:00,
2013-07-26 20:22:00,67.6,63.3,29.89,East,90,0.0,1.0,86,0.00,,,0.10,Wunderground v.1.15,2013-07-27 00:22:00,
2013-07-26 20:23:00,67.6,63.3,29.89,East,90,0.0,1.0,86,0.00,,,0.10,Wunderground v.1.15,2013-07-27 00:23:00,
2013-07-26 20:25:00,67.5,63.2,29.89,East,90,0.0,1.0,86,0.00,,,0.10,Wunderground v.1.15,2013-07-27 00:25:00,
2013-07-26 20:27:00,67.4,63.1,29.90,East,90,0.0,1.0,86,0.00,,,0.10,Wunderground v.1.15,2013-07-27 00:27:00,
2013-07-26 20:28:00,67.3,63.0,29.90,East,90,0.0,1.0,86,0.00,,,0.10,Wunderground v.1.15,2013-07-27 00:28:00,
2013-07-26 20:31:00,67.2,63.2,29.90,East,90,0.0,1.0,87,0.00,,,0.10,Wunderground v.1.15,2013-07-27 00:31:00,
2013-07-26 20:32:00,67.1,63.1,29.90,East,90,0.0,1.0,87,0.00,,,0.10,Wunderground v.1.15,2013-07-27 00:32:00,
2013-07-26 20:33:00,67.1,63.1,29.90,East,90,0.0,1.0,87,0.00,,,0.10,Wunderground v.1.15,2013-07-27 00:33:00,
2013-07-26 20:35:00,67.0,63.0,29.90,East,90,0.0,1.0,87,0.00,,,0.10,Wunderground v.1.15,2013-07-27 00:35:00,
2013-07-26 20:36:00,66.9,62.9,29.90,East,90,0.0,1.0,87,0.00,,,0.10,Wunderground v.1.15,2013-07-27 00:36:00,
2013-07-26 20:39:00,66.8,62.8,29.91,East,90,0.0,1.0,87,0.00,,,0.10,Wunderground v.1.15,2013-07-27 00:39:00,
2013-07-26 20:40:00,66.7,63.0,29.90,East,90,0.0,1.0,88,0.00,,,0.10,Wunderground v.1.15,2013-07-27 00:40:00,
2013-07-26 20:43:00,66.6,62.9,29.90,East,90,0.0,1.0,88,0.00,,,0.10,Wunderground v.1.15,2013-07-27 00:43:00,
2013-07-26 20:47:00,66.5,62.8,29.91,East,90,0.0,1.0,88,0.00,,,0.10,Wunderground v.1.15,2013-07-27 00:47:00,
2013-07-26 20:48:00,66.5,62.8,29.91,East,90,0.0,1.0,88,0.00,,,0.10,Wunderground v.1.15,2013-07-27 00:48:00,
2013-07-26 20:49:00,66.4,62.7,29.91,East,90,0.0,1.0,88,0.00,,,0.10,Wunderground v.1.15,2013-07-27 00:49:00,
2013-07-26 20:51:00,66.3,63.0,29.91,East,90,0.0,1.0,89,0.00,,,0.10,Wunderground v.1.15,2013-07-27 00:51:00,
2013-07-26 20:54:00,66.2,62.9,29.91,East,90,0.0,1.0,89,0.00,,,0.10,Wunderground v.1.15,2013-07-27 00:54:00,
2013-07-26 20:55:00,66.1,62.8,29.91,East,90,0.0,1.0,89,0.00,,,0.10,Wunderground v.1.15,2013-07-27 00:55:00,
2013-07-26 20:56:00,66.1,62.8,29.91,East,90,0.0,1.0,89,0.00,,,0.10,Wunderground v.1.15,2013-07-27 00:56:00,
2013-07-26 20:57:00,66.1,62.8,29.91,East,90,0.0,1.0,89,0.00,,,0.10,Wunderground v.1.15,2013-07-27 00:57:00,
2013-07-26 21:00:00,65.9,62.9,29.91,East,90,0.0,5.0,90,0.00,,,0.10,Wunderground v.1.15,2013-07-27 01:00:00,
2013-07-26 21:02:00,65.8,62.8,29.91,East,90,0.0,5.0,90,0.00,,,0.10,Wunderground v.1.15,2013-07-27 01:02:00,
2013-07-26 21:04:00,65.8,62.8,29.91,East,90,0.0,5.0,90,0.00,,,0.10,Wunderground v.1.15,2013-07-27 01:04:00,
2013-07-26 21:07:00,65.7,62.7,29.91,East,90,0.0,5.0,90,0.00,,,0.10,Wunderground v.1.15,2013-07-27 01:07:00,
2013-07-26 21:08:00,65.7,62.7,29.91,East,90,0.0,5.0,90,0.00,,,0.10,Wunderground v.1.15,2013-07-27 01:08:00,
2013-07-26 21:10:00,65.6,62.6,29.91,East,90,0.0,5.0,90,0.00,,,0.10,Wunderground v.1.15,2013-07-27 01:10:00,
2013-07-26 21:12:00,65.6,62.6,29.91,East,90,0.0,5.0,90,0.00,,,0.10,Wunderground v.1.15,2013-07-27 01:12:00,
2013-07-26 21:14:00,65.4,62.4,29.92,East,90,0.0,5.0,90,0.00,,,0.10,Wunderground v.1.15,2013-07-27 01:14:00,
2013-07-26 21:15:00,65.4,62.4,29.92,East,90,0.0,5.0,90,0.00,,,0.10,Wunderground v.1.15,2013-07-27 01:15:00,
2013-07-26 21:17:00,65.3,62.3,29.92,East,90,0.0,5.0,90,0.00,,,0.10,Wunderground v.1.15,2013-07-27 01:17:00,
2013-07-26 21:20:00,65.2,62.2,29.92,East,90,0.0,5.0,90,0.00,,,0.10,Wunderground v.1.15,2013-07-27 01:20:00,
2013-07-26 21:22:00,65.1,62.1,29.92,East,90,0.0,5.0,90,0.00,,,0.10,Wunderground v.1.15,2013-07-27 01:22:00,
2013-07-26 21:23:00,65.0,62.0,29.92,East,90,0.0,5.0,90,0.00,,,0.10,Wunderground v.1.15,2013-07-27 01:23:00,
2013-07-26 21:24:00,65.0,62.3,29.92,East,98,0.0,5.0,91,0.00,,,0.10,Wunderground v.1.15,2013-07-27 01:24:00,
2013-07-26 21:25:00,64.9,62.2,29.92,WSW,257,1.0,5.0,91,0.00,,,0.10,Wunderground v.1.15,2013-07-27 01:25:00,
2013-07-26 21:27:00,64.9,62.2,29.92,WSW,257,1.0,5.0,91,0.00,,,0.10,Wunderground v.1.15,2013-07-27 01:27:00,
2013-07-26 21:28:00,64.8,62.1,29.92,WSW,257,1.0,5.0,91,0.00,,,0.10,Wunderground v.1.15,2013-07-27 01:28:00,
2013-07-26 21:29:00,64.8,62.1,29.92,WSW,257,1.0,5.0,91,0.00,,,0.10,Wunderground v.1.15,2013-07-27 01:29:00,
2013-07-26 21:30:00,64.7,62.0,29.92,WSW,257,1.0,1.0,91,0.00,,,0.10,Wunderground v.1.15,2013-07-27 01:30:00,
2013-07-26 21:32:00,64.7,62.3,29.92,WSW,257,1.0,5.0,92,0.00,,,0.10,Wunderground v.1.15,2013-07-27 01:32:00,
2013-07-26 21:34:00,64.5,62.1,29.92,WSW,257,1.0,5.0,92,0.00,,,0.10,Wunderground v.1.15,2013-07-27 01:34:00,
2013-07-26 21:35:00,64.5,62.1,29.92,WSW,257,1.0,5.0,92,0.00,,,0.10,Wunderground v.1.15,2013-07-27 01:35:00,
2013-07-26 21:36:00,64.4,62.0,29.92,WSW,257,1.0,5.0,92,0.00,,,0.10,Wunderground v.1.15,2013-07-27 01:36:00,
2013-07-26 21:37:00,64.4,62.0,29.92,WSW,257,1.0,5.0,92,0.00,,,0.10,Wunderground v.1.15,2013-07-27 01:37:00,
2013-07-26 21:40:00,64.2,61.8,29.92,WSW,257,1.0,1.0,92,0.00,,,0.10,Wunderground v.1.15,2013-07-27 01:40:00,
2013-07-26 21:41:00,64.2,61.8,29.92,WSW,257,1.0,5.0,92,0.00,,,0.10,Wunderground v.1.15,2013-07-27 01:41:00,
2013-07-26 21:42:00,64.1,61.7,29.92,WSW,257,1.0,5.0,92,0.00,,,0.10,Wunderground v.1.15,2013-07-27 01:42:00,
2013-07-26 21:43:00,64.1,61.7,29.92,WSW,257,1.0,5.0,92,0.00,,,0.10,Wunderground v.1.15,2013-07-27 01:43:00,
2013-07-26 21:45:00,64.0,61.6,29.92,WSW,257,0.0,5.0,92,0.00,,,0.10,Wunderground v.1.15,2013-07-27 01:45:00,
2013-07-26 21:47:00,63.9,61.8,29.92,WSW,257,0.0,5.0,93,0.00,,,0.10,Wunderground v.1.15,2013-07-27 01:47:00,
2013-07-26 21:51:00,63.8,61.7,29.92,WSW,257,0.0,5.0,93,0.00,,,0.10,Wunderground v.1.15,2013-07-27 01:51:00,
2013-07-26 21:52:00,63.8,61.7,29.92,WSW,257,0.0,5.0,93,0.00,,,0.10,Wunderground v.1.15,2013-07-27 01:52:00,
2013-07-26 21:54:00,63.8,61.7,29.92,WSW,257,0.0,5.0,93,0.00,,,0.10,Wunderground v.1.15,2013-07-27 01:54:00,
2013-07-26 21:58:00,63.7,61.6,29.92,WSW,257,0.0,5.0,93,0.00,,,0.10,Wunderground v.1.15,2013-07-27 01:58:00,
2013-07-26 21:59:00,63.6,61.5,29.92,WSW,257,0.0,5.0,93,0.00,,,0.10,Wunderground v.1.15,2013-07-27 01:59:00,
2013-07-26 22:01:00,63.6,61.5,29.92,WSW,257,0.0,5.0,93,0.00,,,0.10,Wunderground v.1.15,2013-07-27 02:01:00,
2013-07-26 22:03:00,63.5,61.4,29.92,WSW,257,0.0,5.0,93,0.00,,,0.10,Wunderground v.1.15,2013-07-27 02:03:00,
2013-07-26 22:04:00,63.5,61.4,29.92,WSW,257,0.0,5.0,93,0.00,,,0.10,Wunderground v.1.15,2013-07-27 02:04:00,
2013-07-26 22:08:00,63.4,61.3,29.92,WSW,257,0.0,5.0,93,0.00,,,0.10,Wunderground v.1.15,2013-07-27 02:08:00,
2013-07-26 22:10:00,63.3,61.2,29.92,WSW,257,0.0,5.0,93,0.00,,,0.10,Wunderground v.1.15,2013-07-27 02:10:00,
2013-07-26 22:11:00,63.3,61.2,29.92,WSW,257,0.0,5.0,93,0.00,,,0.10,Wunderground v.1.15,2013-07-27 02:11:00,
2013-07-26 22:12:00,63.2,61.1,29.92,WSW,257,0.0,5.0,93,0.00,,,0.10,Wunderground v.1.15,2013-07-27 02:12:00,
2013-07-26 22:13:00,63.2,61.1,29.92,WSW,257,0.0,5.0,93,0.00,,,0.10,Wunderground v.1.15,2013-07-27 02:13:00,
2013-07-26 22:18:00,62.9,60.8,29.92,WSW,257,0.0,5.0,93,0.00,,,0.10,Wunderground v.1.15,2013-07-27 02:18:00,
2013-07-26 22:19:00,62.9,60.8,29.92,WSW,257,0.0,5.0,93,0.00,,,0.10,Wunderground v.1.15,2013-07-27 02:19:00,
2013-07-26 22:21:00,62.8,61.0,29.92,WSW,257,0.0,5.0,94,0.00,,,0.10,Wunderground v.1.15,2013-07-27 02:21:00,
2013-07-26 22:22:00,62.8,61.0,29.92,WSW,257,0.0,5.0,94,0.00,,,0.10,Wunderground v.1.15,2013-07-27 02:22:00,
2013-07-26 22:26:00,62.6,60.8,29.92,WSW,257,0.0,5.0,94,0.00,,,0.10,Wunderground v.1.15,2013-07-27 02:26:00,
2013-07-26 22:28:00,62.5,60.4,29.92,WSW,257,0.0,5.0,93,0.00,,,0.10,Wunderground v.1.15,2013-07-27 02:28:00,
2013-07-26 22:29:00,62.5,60.4,29.92,WSW,257,0.0,5.0,93,0.00,,,0.10,Wunderground v.1.15,2013-07-27 02:29:00,
2013-07-26 22:32:00,62.4,60.3,29.92,WSW,257,0.0,5.0,93,0.00,,,0.10,Wunderground v.1.15,2013-07-27 02:32:00,
2013-07-26 22:33:00,62.3,60.2,29.92,WSW,257,0.0,5.0,93,0.00,,,0.10,Wunderground v.1.15,2013-07-27 02:33:00,
2013-07-26 22:37:00,62.1,60.1,29.92,WSW,257,0.0,5.0,93,0.00,,,0.10,Wunderground v.1.15,2013-07-27 02:37:00,
2013-07-26 22:38:00,62.0,60.0,29.92,WSW,257,0.0,5.0,93,0.00,,,0.10,Wunderground v.1.15,2013-07-27 02:38:00,
2013-07-26 22:39:00,62.0,60.0,29.92,WSW,257,0.0,5.0,93,0.00,,,0.10,Wunderground v.1.15,2013-07-27 02:39:00,
2013-07-26 22:42:00,61.8,59.8,29.92,WSW,257,0.0,5.0,93,0.00,,,0.10,Wunderground v.1.15,2013-07-27 02:42:00,
2013-07-26 22:43:00,61.8,60.1,29.92,WSW,257,0.0,5.0,94,0.00,,,0.10,Wunderground v.1.15,2013-07-27 02:43:00,
2013-07-26 22:44:00,61.8,59.8,29.92,WSW,257,0.0,5.0,93,0.00,,,0.10,Wunderground v.1.15,2013-07-27 02:44:00,
2013-07-26 22:45:00,61.8,59.8,29.92,WSW,257,0.0,5.0,93,0.00,,,0.10,Wunderground v.1.15,2013-07-27 02:45:00,
2013-07-26 22:46:00,61.8,60.1,29.92,WSW,257,0.0,5.0,94,0.00,,,0.10,Wunderground v.1.15,2013-07-27 02:46:00,
2013-07-26 22:48:00,61.8,60.1,29.92,WSW,257,0.0,5.0,94,0.00,,,0.10,Wunderground v.1.15,2013-07-27 02:48:00,
2013-07-26 22:51:00,61.7,60.0,29.92,WSW,257,0.0,5.0,94,0.00,,,0.10,Wunderground v.1.15,2013-07-27 02:51:00,
2013-07-26 22:52:00,61.7,60.0,29.92,WSW,257,0.0,5.0,94,0.00,,,0.10,Wunderground v.1.15,2013-07-27 02:52:00,
2013-07-26 22:53:00,61.7,60.0,29.92,WSW,257,0.0,5.0,94,0.00,,,0.10,Wunderground v.1.15,2013-07-27 02:53:00,
2013-07-26 22:57:00,61.7,60.0,29.92,WSW,257,0.0,5.0,94,0.00,,,0.10,Wunderground v.1.15,2013-07-27 02:57:00,
2013-07-26 22:58:00,61.7,60.0,29.92,WSW,257,0.0,5.0,94,0.00,,,0.10,Wunderground v.1.15,2013-07-27 02:58:00,
2013-07-26 22:59:00,61.7,60.0,29.92,WSW,257,0.0,5.0,94,0.00,,,0.10,Wunderground v.1.15,2013-07-27 02:59:00,
2013-07-26 23:01:00,61.7,60.0,29.92,WSW,257,0.0,2.0,94,0.00,,,0.10,Wunderground v.1.15,2013-07-27 03:01:00,
2013-07-26 23:03:00,61.7,60.0,29.92,WSW,257,0.0,2.0,94,0.00,,,0.10,Wunderground v.1.15,2013-07-27 03:03:00,
2013-07-26 23:06:00,61.7,60.0,29.92,WSW,257,0.0,2.0,94,0.00,,,0.10,Wunderground v.1.15,2013-07-27 03:06:00,
2013-07-26 23:07:00,61.7,60.0,29.92,WSW,257,0.0,2.0,94,0.00,,,0.10,Wunderground v.1.15,2013-07-27 03:07:00,
2013-07-26 23:09:00,61.8,60.4,29.92,WSW,257,0.0,2.0,95,0.00,,,0.10,Wunderground v.1.15,2013-07-27 03:09:00,
2013-07-26 23:10:00,61.8,60.4,29.92,WSW,257,0.0,2.0,95,0.00,,,0.10,Wunderground v.1.15,2013-07-27 03:10:00,
2013-07-26 23:11:00,61.9,60.5,29.92,WSW,257,0.0,2.0,95,0.00,,,0.10,Wunderground v.1.15,2013-07-27 03:11:00,
2013-07-26 23:13:00,61.9,60.5,29.92,WSW,257,0.0,2.0,95,0.00,,,0.10,Wunderground v.1.15,2013-07-27 03:13:00,
2013-07-26 23:15:00,62.0,60.6,29.92,WSW,257,0.0,2.0,95,0.00,,,0.10,Wunderground v.1.15,2013-07-27 03:15:00,
2013-07-26 23:16:00,62.0,60.6,29.92,WSW,257,0.0,2.0,95,0.00,,,0.10,Wunderground v.1.15,2013-07-27 03:16:00,
2013-07-26 23:18:00,62.0,60.6,29.92,WSW,257,0.0,2.0,95,0.00,,,0.10,Wunderground v.1.15,2013-07-27 03:18:00,
2013-07-26 23:19:00,62.0,60.6,29.92,WSW,257,0.0,2.0,95,0.00,,,0.10,Wunderground v.1.15,2013-07-27 03:19:00,
2013-07-26 23:22:00,62.0,60.6,29.92,WSW,257,0.0,2.0,95,0.00,,,0.10,Wunderground v.1.15,2013-07-27 03:22:00,
2013-07-26 23:23:00,62.0,60.6,29.92,WSW,257,0.0,2.0,95,0.00,,,0.10,Wunderground v.1.15,2013-07-27 03:23:00,
2013-07-26 23:25:00,61.9,60.5,29.92,WSW,257,0.0,2.0,95,0.00,,,0.10,Wunderground v.1.15,2013-07-27 03:25:00,
2013-07-26 23:26:00,62.0,60.6,29.92,WSW,257,0.0,2.0,95,0.00,,,0.10,Wunderground v.1.15,2013-07-27 03:26:00,
2013-07-26 23:31:00,61.9,60.5,29.92,WSW,257,0.0,2.0,95,0.00,,,0.10,Wunderground v.1.15,2013-07-27 03:31:00,
2013-07-26 23:32:00,61.8,60.4,29.92,WSW,257,0.0,2.0,95,0.00,,,0.10,Wunderground v.1.15,2013-07-27 03:32:00,
2013-07-26 23:33:00,61.8,60.4,29.92,WSW,257,0.0,2.0,95,0.00,,,0.10,Wunderground v.1.15,2013-07-27 03:33:00,
2013-07-26 23:37:00,61.7,60.3,29.92,WSW,257,0.0,2.0,95,0.00,,,0.10,Wunderground v.1.15,2013-07-27 03:37:00,
2013-07-26 23:38:00,61.6,60.2,29.92,WSW,257,0.0,2.0,95,0.00,,,0.10,Wunderground v.1.15,2013-07-27 03:38:00,
2013-07-26 23:40:00,61.5,60.1,29.93,WSW,257,0.0,2.0,95,0.00,,,0.10,Wunderground v.1.15,2013-07-27 03:40:00,
2013-07-26 23:42:00,61.4,59.7,29.93,WSW,257,0.0,2.0,94,0.00,,,0.10,Wunderground v.1.15,2013-07-27 03:42:00,
2013-07-26 23:43:00,61.3,59.6,29.93,WSW,257,0.0,2.0,94,0.00,,,0.10,Wunderground v.1.15,2013-07-27 03:43:00,
2013-07-26 23:44:00,61.3,59.6,29.93,WSW,257,0.0,2.0,94,0.00,,,0.10,Wunderground v.1.15,2013-07-27 03:44:00,
2013-07-26 23:47:00,61.2,59.8,29.93,WSW,257,0.0,2.0,95,0.00,,,0.10,Wunderground v.1.15,2013-07-27 03:47:00,
2013-07-26 23:49:00,61.1,59.7,29.93,WSW,257,0.0,2.0,95,0.00,,,0.10,Wunderground v.1.15,2013-07-27 03:49:00,
2013-07-26 23:50:00,61.1,59.7,29.93,WSW,257,0.0,2.0,95,0.00,,,0.10,Wunderground v.1.15,2013-07-27 03:50:00,
2013-07-26 23:52:00,61.0,59.6,29.93,WSW,257,0.0,2.0,95,0.00,,,0.10,Wunderground v.1.15,2013-07-27 03:52:00,
2013-07-26 23:56:00,60.9,59.5,29.93,WSW,257,0.0,2.0,95,0.00,,,0.10,Wunderground v.1.15,2013-07-27 03:56:00,
2013-07-26 23:57:00,60.9,59.5,29.93,WSW,257,0.0,2.0,95,0.00,,,0.10,Wunderground v.1.15,2013-07-27 03:57:00,
2013-07-26 23:59:00,60.9,59.5,29.93,WSW,257,0.0,2.0,95,0.00,,,0.10,Wunderground v.1.15,2013-07-27 03:59:00,